GFSFLT1_sfc_dewp_000.txt.gz
Dewpoint
30 30 30 30 31 28 30 30 33 33 32 34 34 35 36 35 35 35 38 38 39 37 38 41 39 36 36 37 38 38 42 48
30 32 32 31 32 29 29 30 32 30 30 30 30 31 33 35 33 34 36 35 35 38 34 34 37 36 38 37 35 35 34 40
30 31 33 34 31 30 28 28 30 30 27 29 31 31 30 31 33 36 36 36 36 33 34 33 36 33 36 37 37 33 31 35
29 30 33 35 34 33 30 28 28 30 30 28 29 30 31 29 30 30 34 38 38 39 37 37 36 36 34 36 36 35 30 31
27 29 31 34 36 36 32 29 27 28 32 28 32 26 24 25 30 30 32 36 38 39 39 40 41 38 37 35 31 35 35 31
28 28 30 32 35 37 36 31 29 29 32 34 31 32 29 30 31 34 35 36 36 37 38 40 41 40 39 40 39 37 34 33
29 28 29 30 36 37 37 32 29 31 33 34 35 34 32 30 31 30 29 30 30 33 33 36 37 38 38 38 39 39 38 36
30 29 28 29 31 34 33 31 29 30 33 34 35 35 34 32 29 28 29 27 27 29 30 31 30 31 32 33 34 35 36 34
31 29 30 30 31 32 32 28 29 29 32 33 34 32 28 27 27 27 26 26 26 28 29 29 29 30 30 31 30 30 32 36
31 30 31 31 32 33 34 30 27 28 31 32 30 30 28 24 26 28 26 28 23 26 28 29 30 30 31 32 30 31 33 36
33 32 33 32 33 31 34 32 28 28 29 29 27 27 26 25 27 27 28 28 27 27 27 28 28 29 29 30 30 31 31 34
34 33 33 34 33 30 31 29 27 27 27 28 28 25 24 25 26 26 26 27 26 26 26 27 27 27 28 28 29 30 30 30
33 35 34 32 29 27 27 28 26 26 26 27 26 25 25 26 25 26 27 26 27 27 26 25 25 24 25 26 27 27 28 29
34 36 32 28 27 27 25 26 25 25 25 25 25 26 25 25 26 26 26 26 26 25 23 23 23 23 23 25 26 27 28 28
35 36 31 26 26 25 23 24 26 25 24 22 25 26 26 26 26 26 26 26 23 21 22 22 23 23 23 24 25 26 27 27
36 33 29 24 24 23 22 24 26 26 24 24 23 27 27 26 25 26 25 23 20 20 21 21 22 23 21 25 24 25 25 26
35 31 25 21 21 21 25 26 29 27 25 23 24 26 25 24 24 24 21 19 18 19 20 21 23 20 25 26 25 25 25 26
38 28 22 20 21 28 29 31 28 26 23 23 24 24 23 23 21 18 16 18 18 18 20 23 24 24 26 25 25 26 28 28
37 28 21 23 30 30 32 25 23 24 22 22 22 22 21 21 18 15 16 16 18 19 23 23 23 22 25 25 25 27 29 29

GFSFLT1_sfc_dewp_003.txt.gz
Dewpoint
28 31 33 33 35 34 33 33 34 35 33 36 35 36 36 37 36 36 39 37 37 37 37 40 39 36 37 38 38 36 36 39
29 33 35 34 36 34 32 33 34 32 31 31 32 34 35 35 34 35 37 34 36 38 34 35 37 36 38 40 38 38 35 35
29 32 35 37 35 35 32 32 33 33 30 31 32 33 31 33 34 37 38 38 37 36 36 35 36 35 39 39 39 36 36 37
28 31 34 37 38 37 34 31 32 33 34 29 31 33 33 30 31 33 37 40 39 39 38 37 38 38 36 39 38 37 33 37
27 29 32 36 38 39 37 35 32 32 34 32 35 29 27 29 31 29 29 34 37 38 38 37 38 38 39 40 35 40 40 35
29 30 31 32 37 39 40 37 35 33 33 37 36 36 35 31 32 34 35 36 36 35 36 37 38 37 39 42 43 43 39 39
30 31 31 32 37 40 41 38 35 34 34 34 39 39 37 34 36 35 37 36 36 35 31 35 36 36 36 39 42 41 41 40
32 31 31 32 33 36 38 38 36 35 35 36 39 39 38 37 34 33 31 30 29 31 33 36 32 31 31 33 36 37 37 36
33 33 34 33 34 34 35 35 34 34 34 35 36 36 35 34 31 30 29 28 28 29 30 29 29 29 29 32 32 34 35 35
34 35 35 35 35 36 38 36 35 34 34 35 35 35 34 31 30 30 29 28 25 27 28 29 28 29 28 30 32 33 35 36
34 34 36 37 37 37 40 37 35 34 32 33 33 32 30 29 30 29 28 28 28 27 27 26 26 27 28 29 31 31 34 34
34 34 35 37 38 37 36 35 34 34 30 32 32 30 28 27 26 26 27 28 26 26 25 25 26 26 27 28 29 30 30 31
34 35 37 37 37 34 32 33 32 29 29 30 29 28 26 26 26 26 28 27 27 26 26 25 24 24 24 24 25 25 26 27
34 34 37 37 35 32 30 30 30 27 26 27 27 26 26 27 26 27 27 26 25 25 24 24 23 23 23 24 23 25 26 27
33 36 36 38 34 31 29 29 28 26 25 25 28 28 27 26 27 27 27 26 25 24 23 23 23 22 21 22 21 24 26 26
34 36 38 40 33 29 28 27 26 26 27 28 31 29 28 27 27 27 26 26 24 22 21 22 22 21 18 22 23 24 26 26
36 38 40 39 30 27 26 25 27 30 31 31 28 27 26 26 26 26 25 22 20 21 21 21 22 17 25 29 28 25 25 25
37 40 40 37 30 26 24 28 33 37 30 28 27 25 25 25 23 22 21 21 21 21 21 21 21 23 27 28 28 26 27 27
40 40 40 34 31 29 32 37 33 31 30 26 23 23 23 24 23 19 19 20 20 20 21 22 23 23 27 28 28 28 28 28

GFSFLT1_sfc_dewp_006.txt.gz
Dewpoint
30 33 37 38 43 41 41 41 42 44 43 44 45 45 45 45 45 45 45 44 43 42 44 44 43 42 42 43 42 42 41 41
34 38 41 40 43 41 40 39 42 40 41 41 41 43 43 44 43 43 44 43 43 43 43 41 43 42 42 41 42 41 41 42
32 37 41 42 41 41 40 39 40 40 39 40 41 42 41 41 42 44 43 45 43 41 43 40 41 41 41 43 42 40 41 41
31 37 41 44 43 44 41 39 39 40 40 38 40 41 41 39 39 40 43 44 45 44 43 43 42 42 42 42 41 40 39 40
32 37 38 42 43 46 44 42 39 39 43 37 40 36 33 34 37 37 37 44 44 43 43 43 43 42 41 42 40 43 41 38
34 34 36 41 42 46 45 44 42 41 42 42 39 39 38 39 40 40 40 40 40 39 40 42 42 42 42 41 41 41 41 40
34 36 37 37 43 44 46 45 41 42 42 43 43 40 41 40 40 39 39 39 40 41 38 39 39 39 38 38 38 37 38 38
37 36 36 39 41 43 45 43 41 42 44 44 42 43 42 41 41 40 38 36 35 36 36 36 36 35 36 35 35 35 35 34
36 38 40 40 42 42 42 39 39 40 41 42 43 43 41 41 40 38 36 34 34 34 33 34 34 34 35 35 34 33 34 34
37 38 41 41 42 42 43 42 40 40 42 44 43 42 41 39 38 37 35 35 30 34 34 34 34 35 34 34 33 32 32 33
37 38 39 40 41 42 44 45 40 38 39 41 38 38 38 36 36 34 33 33 32 33 33 33 32 32 32 32 31 31 32 32
37 38 39 40 41 40 40 38 37 37 37 38 38 36 36 34 32 32 31 33 32 32 31 30 29 28 29 29 29 29 29 28
35 36 37 39 40 41 41 38 36 36 36 36 35 34 33 32 32 32 33 32 32 32 30 28 27 27 27 27 27 26 26 26
36 36 38 39 40 41 42 35 35 34 31 33 32 32 32 31 33 33 32 32 31 29 28 28 27 27 26 26 25 25 25 25
35 36 38 39 41 41 38 32 34 32 29 29 32 30 32 33 33 32 32 31 30 29 28 27 27 25 23 23 22 23 24 24
39 39 38 39 40 40 35 32 32 31 29 29 32 36 36 33 32 32 31 31 28 28 25 25 26 24 21 23 24 25 25 25
40 38 38 39 40 39 31 30 30 31 32 38 39 36 33 31 31 31 31 29 27 25 25 25 25 21 27 30 30 26 25 25
39 39 40 40 39 35 32 33 39 39 39 37 35 35 30 30 29 27 28 26 26 25 24 24 24 24 29 30 29 26 26 25
40 40 39 39 36 36 40 40 38 36 36 36 34 29 28 27 28 26 25 24 24 23 24 24 24 24 28 28 28 26 26 27

GFSFLT1_sfc_dewp_012.txt.gz
Dewpoint
28 31 34 36 37 38 38 33 40 40 39 39 40 41 40 43 48 47 47 46 44 41 44 43 41 41 41 40 37 39 39 37
34 34 36 35 35 35 36 34 34 38 36 36 36 38 39 40 42 46 46 44 43 40 41 43 42 40 40 39 39 38 37 38
33 33 33 34 34 33 33 33 35 36 35 35 35 35 37 38 40 41 45 44 42 40 40 41 41 41 39 40 40 39 39 39
32 33 32 33 34 34 35 34 34 36 36 35 36 37 37 37 37 39 41 43 43 41 40 41 39 40 39 37 38 37 36 39
28 29 31 35 35 36 37 37 36 36 37 35 34 33 33 34 35 36 39 41 41 42 41 41 40 41 39 40 39 39 38 36
30 31 33 32 35 37 39 39 39 39 39 38 37 34 35 36 37 35 36 39 41 42 42 42 42 41 38 34 33 31 35 34
32 33 34 36 36 37 39 39 39 40 41 40 39 38 37 37 37 38 38 39 39 40 38 37 36 36 35 34 33 32 32 33
32 32 33 35 36 37 38 39 39 41 41 41 41 41 40 39 37 37 39 38 36 34 34 35 35 36 37 37 38 37 36 34
34 36 36 37 38 39 39 40 41 40 41 41 41 42 43 42 41 39 38 36 36 35 36 38 38 39 39 40 39 38 37 34
35 37 38 38 39 40 40 40 40 40 41 41 39 39 41 41 37 36 36 35 35 37 38 40 41 41 40 39 37 35 35 34
36 37 38 39 40 40 42 41 40 41 41 37 36 36 36 35 34 33 34 36 38 39 41 41 41 39 37 35 35 34 33 32
37 38 39 39 40 41 41 41 41 41 38 35 35 32 33 32 32 33 33 36 38 39 40 38 37 36 35 34 32 32 31 30
39 39 40 40 39 40 40 41 41 38 34 34 34 32 31 30 31 32 33 34 35 36 36 34 34 34 32 31 30 29 29 27
40 40 39 40 39 39 40 41 36 33 32 33 31 30 29 29 31 32 32 32 32 32 32 31 32 32 30 30 29 27 27 26
40 40 40 41 40 40 40 37 34 33 30 30 30 30 29 31 32 32 31 31 31 30 30 30 31 30 27 27 26 26 26 26
39 40 40 41 40 40 38 35 38 38 37 38 37 36 34 33 32 32 33 31 30 30 29 27 27 26 23 26 27 27 26 26
39 40 41 41 39 39 36 37 39 39 38 38 38 39 38 38 37 36 33 32 29 26 25 25 25 22 28 30 29 26 24 23
39 41 41 40 38 36 37 39 40 39 39 39 39 40 38 37 37 34 31 27 24 23 22 23 23 24 27 28 29 26 26 25
39 41 40 38 37 37 38 39 39 38 38 38 38 37 37 34 29 25 23 22 21 21 22 23 23 23 27 28 29 26 26 26

GFSFLT1_sfc_dewp_015.txt.gz
Dewpoint
29 30 34 34 40 43 42 42 47 46 43 42 41 41 42 42 44 48 48 47 47 43 45 46 42 42 41 39 37 39 37 37
33 33 35 36 39 38 37 33 40 39 38 37 37 38 39 40 41 45 47 47 46 43 43 44 42 41 40 40 38 37 38 38
34 35 34 34 35 35 36 34 33 36 36 35 35 36 37 39 40 41 45 46 46 43 41 42 43 41 40 40 39 39 38 39
32 32 33 33 33 33 34 34 34 36 36 35 35 36 36 37 37 38 40 45 46 44 41 40 41 42 40 39 39 38 37 38
30 32 33 33 33 34 35 36 36 36 37 36 34 33 33 35 36 36 37 41 43 44 42 40 39 41 40 39 39 38 38 36
30 30 30 32 34 35 37 39 40 40 40 39 38 37 37 37 38 37 37 38 42 42 43 41 41 42 41 38 35 32 34 32
31 33 33 34 36 37 38 39 39 40 41 41 41 40 40 39 39 39 39 39 39 41 41 41 38 36 35 35 35 34 34 35
32 33 33 36 37 39 39 40 40 41 41 41 41 41 41 41 41 41 39 38 36 35 36 36 37 38 39 40 40 39 38 37
36 36 37 38 39 40 40 40 41 41 41 41 42 41 40 41 42 41 40 36 35 37 38 39 40 40 40 41 40 40 41 40
36 37 38 39 39 39 40 41 41 41 41 42 40 37 37 39 37 37 36 36 37 38 40 41 41 41 42 42 40 38 38 37
38 38 39 39 39 40 41 41 40 41 41 39 34 35 36 36 34 34 35 36 38 40 40 41 41 41 41 40 37 35 35 34
39 39 40 40 40 40 40 40 40 41 39 34 35 36 33 32 32 34 35 37 38 39 37 38 39 38 37 35 35 33 32 31
40 40 41 40 40 40 40 40 41 37 33 33 34 34 31 31 32 32 34 35 36 34 35 36 36 35 34 32 31 30 29 28
40 41 40 41 41 41 40 41 36 35 32 32 32 31 29 29 31 33 33 33 32 32 32 33 32 32 30 30 29 28 28 27
40 40 40 40 41 41 40 39 36 36 32 31 30 30 29 30 32 32 32 32 31 30 31 31 31 28 26 26 25 26 26 26
40 40 39 41 41 40 39 36 37 39 38 36 36 36 35 36 37 37 36 36 35 31 28 26 25 24 22 26 27 26 26 25
41 40 39 41 41 39 37 37 38 40 39 38 39 40 40 39 39 36 36 35 30 26 24 24 24 22 28 29 28 26 26 25
36 38 39 41 41 38 37 37 39 39 38 38 40 40 38 37 37 36 33 27 23 22 22 23 23 23 26 27 29 26 26 25
34 36 41 41 38 37 37 38 38 38 38 37 37 37 37 33 27 24 22 22 21 21 21 23 23 23 26 26 27 26 25 25

GFSFLT1_sfc_dewp_018.txt.gz
Dewpoint
30 30 35 36 39 44 46 46 48 48 47 45 43 42 42 43 44 46 48 48 48 48 47 47 46 44 44 40 38 39 37 37
34 33 34 35 39 42 43 41 43 44 41 39 38 39 39 40 41 42 45 47 47 47 45 45 45 42 42 41 39 37 38 39
34 34 36 37 38 40 40 37 35 41 38 36 36 36 37 39 40 40 42 46 47 46 45 43 44 43 41 40 39 38 38 39
33 33 34 34 35 36 36 36 35 35 36 36 35 35 36 36 36 37 38 41 43 46 45 44 42 43 42 40 39 38 37 38
32 32 32 32 33 34 34 36 37 37 37 36 36 34 34 36 37 37 36 39 41 43 45 44 42 42 42 41 40 39 37 37
28 29 30 33 35 36 38 39 40 41 40 40 40 39 40 41 40 40 40 40 39 40 42 44 43 41 42 41 39 38 36 36
31 33 34 35 38 39 40 40 40 41 41 41 41 40 41 40 39 41 41 41 40 39 40 41 40 37 36 35 36 36 36 37
35 36 37 39 39 40 40 40 40 41 42 42 42 41 39 38 38 39 40 40 36 36 37 38 39 39 39 39 39 39 40 40
37 38 38 39 39 39 40 41 41 41 41 42 41 38 37 37 38 39 39 37 36 38 39 39 39 40 40 41 41 41 42 41
37 38 39 39 39 40 40 40 41 41 41 41 39 36 36 35 36 36 36 36 38 39 39 39 39 41 41 41 40 39 39 38
38 39 40 40 40 40 41 40 40 40 41 38 34 35 35 35 35 35 35 36 38 38 38 38 38 39 40 40 39 39 37 37
39 39 40 41 41 41 41 40 40 41 38 34 34 34 35 33 33 34 35 37 38 38 38 37 37 36 38 38 37 35 33 32
39 40 41 41 41 41 41 41 41 39 35 34 33 34 33 31 32 33 35 35 36 34 35 35 35 34 34 32 31 30 29 28
39 40 41 41 41 41 41 41 40 36 37 35 34 33 30 29 31 33 33 33 34 35 34 33 32 32 30 29 28 27 27 27
39 40 41 41 40 41 41 40 37 37 38 38 35 33 32 34 35 37 37 37 36 36 34 32 30 26 25 25 25 25 26 26
40 40 37 37 39 41 41 39 37 38 39 38 36 36 39 39 38 37 37 37 35 31 27 26 25 24 21 26 26 26 25 24
35 33 30 32 38 41 39 37 37 39 38 37 38 40 39 37 37 37 36 36 35 26 24 24 23 22 27 28 29 27 26 26
33 32 35 40 40 38 37 37 37 38 37 38 39 39 37 38 38 36 34 26 23 22 22 23 23 24 26 26 26 25 26 26
34 38 37 36 36 35 36 37 35 34 36 34 34 33 34 30 25 23 22 22 21 20 21 23 24 22 24 25 25 25 24 25

GFSFLT1_sfc_dewp_021.txt.gz
Dewpoint
35 35 38 41 48 49 50 52 53 53 52 52 50 50 49 49 48 48 50 50 52 53 52 53 53 52 52 52 50 45 42 40
35 37 37 40 44 46 48 48 50 49 48 47 46 44 43 43 43 45 46 46 49 51 50 51 51 50 50 51 49 47 43 43
35 36 38 40 40 44 45 45 42 41 43 42 42 41 40 40 42 44 44 45 47 47 49 48 49 48 50 49 48 44 43 43
34 36 39 40 40 41 38 39 40 41 42 40 41 42 42 41 41 41 42 44 45 45 46 47 48 48 47 49 48 46 43 42
32 34 36 39 41 43 43 43 43 43 44 43 44 41 40 41 42 41 42 45 45 45 45 46 47 46 46 46 46 46 45 42
33 35 38 41 43 44 44 43 43 43 44 44 43 41 41 41 42 42 42 43 44 44 44 44 45 45 46 46 46 45 43 41
38 39 41 41 44 44 44 43 42 43 44 45 44 42 41 40 41 39 40 40 42 43 41 43 44 43 43 42 41 41 40 39
39 39 39 41 42 43 42 43 41 43 44 44 44 41 41 40 40 39 39 39 40 40 41 42 41 41 41 42 42 42 42 41
39 40 41 41 42 43 43 42 41 42 43 44 43 41 39 39 39 39 39 38 39 41 41 41 42 42 42 43 42 42 40 38
39 41 42 42 42 43 44 43 41 42 43 44 40 40 40 39 39 39 38 39 39 41 41 41 41 41 41 41 40 39 39 39
39 40 42 43 43 43 44 44 42 42 42 42 37 39 39 39 38 37 37 39 41 41 41 40 39 39 39 39 39 38 37 37
39 40 41 43 43 43 43 43 43 42 42 38 40 39 39 36 34 36 37 39 41 39 37 36 36 37 37 37 37 36 35 34
41 41 42 42 41 39 40 43 43 42 39 40 39 39 36 33 34 35 37 36 37 38 39 38 38 36 34 32 31 30 28 27
41 41 40 37 36 38 40 43 43 40 39 39 39 37 33 34 37 38 39 39 38 38 37 35 34 33 28 26 25 25 25 25
41 39 37 35 35 39 41 41 41 39 39 39 39 36 37 38 38 37 37 37 36 35 35 30 28 25 23 23 24 25 25 25
39 35 32 35 39 38 36 37 38 38 39 39 38 38 39 38 37 38 37 36 36 37 34 27 26 23 20 25 24 25 24 24
35 33 37 36 32 33 35 36 38 39 37 38 39 40 40 39 39 38 37 38 36 27 25 24 24 20 26 26 26 23 22 22
34 36 34 32 34 35 36 37 37 35 36 37 37 36 35 35 32 26 25 25 25 24 23 23 23 24 24 24 25 23 23 23
36 34 32 33 34 35 37 37 34 33 32 33 29 28 26 26 25 25 25 23 23 22 23 23 22 20 23 24 25 25 25 24

GFSFLT1_sfc_dewp_024.txt.gz
Dewpoint
46 46 46 45 49 52 53 54 54 53 53 53 50 50 48 48 46 45 48 47 50 51 49 51 51 50 49 49 51 49 48 45
37 39 40 41 45 48 50 50 51 50 50 47 45 44 43 42 41 44 47 46 48 49 47 48 49 50 50 51 49 50 49 47
37 40 43 44 45 46 45 44 43 42 42 43 44 44 42 44 45 47 46 47 47 45 47 47 48 47 49 50 51 49 48 47
35 38 42 43 44 44 42 43 44 45 45 43 44 44 43 41 42 41 43 44 44 45 45 46 47 47 46 48 49 49 47 47
35 38 41 45 46 46 45 44 43 44 46 44 45 42 40 42 43 42 41 42 42 42 44 45 47 46 46 46 45 47 47 45
37 39 41 43 46 47 46 44 44 44 45 46 44 43 42 42 42 43 42 41 40 39 42 45 45 45 45 47 48 48 46 45
39 40 41 41 45 46 45 43 42 44 44 45 45 43 43 41 40 38 36 36 36 39 40 44 45 45 44 44 45 44 44 44
39 39 40 42 43 45 43 43 41 41 42 42 42 41 41 39 39 37 38 36 36 39 42 43 43 44 43 43 43 42 42 41
39 39 41 42 43 44 44 42 41 40 40 40 41 41 40 39 39 39 38 37 38 42 43 43 42 41 41 42 43 42 40 39
38 39 41 42 43 44 45 42 40 40 41 42 43 41 42 41 40 39 37 39 38 41 42 41 41 42 41 41 41 41 41 40
39 39 41 42 42 43 44 41 39 41 41 43 41 42 42 41 39 37 38 39 40 40 41 40 39 40 40 41 40 40 38 38
39 40 41 41 41 40 38 39 40 41 42 42 43 42 41 38 36 36 38 40 39 37 39 39 39 39 39 38 37 36 34 33
38 39 40 38 37 36 38 40 39 39 38 39 40 40 39 36 36 37 38 37 40 40 39 39 37 35 36 36 32 30 28 27
37 38 37 36 34 37 37 34 33 34 35 36 37 38 37 36 37 37 38 38 38 38 37 34 32 31 29 28 26 27 27 26
38 38 36 33 35 33 29 30 34 35 36 36 36 37 37 38 38 37 37 36 35 34 35 35 36 30 27 25 25 25 25 24
38 35 32 34 30 28 30 33 34 36 35 34 35 39 39 40 39 37 37 36 34 33 32 29 28 26 20 25 24 24 23 22
36 32 33 30 28 29 32 33 34 35 34 33 34 36 36 36 36 34 31 28 26 26 26 26 26 21 26 25 25 22 21 21
32 32 32 30 30 30 32 34 34 34 32 31 31 30 29 29 26 25 26 27 26 25 25 25 25 25 24 24 24 22 23 23
31 33 31 30 29 28 32 31 32 33 31 30 28 28 26 26 26 26 26 25 25 25 25 24 24 21 24 24 24 24 25 24

GFSFLT1_sfc_dewp_027.txt.gz
Dewpoint
42 47 45 45 49 51 53 53 55 55 53 52 48 48 47 47 45 44 47 47 49 50 49 50 51 49 50 51 53 50 50 50
41 43 44 43 47 46 51 52 54 51 50 47 45 44 44 43 42 46 48 48 48 50 47 47 50 48 51 53 53 53 52 52
39 42 44 45 45 46 46 46 46 44 42 44 46 46 44 45 46 46 46 47 47 45 46 45 45 45 49 51 52 50 51 52
38 41 45 46 46 45 44 44 45 46 46 43 44 43 44 42 43 44 45 46 45 45 44 44 46 47 45 49 49 49 46 48
38 41 43 46 46 46 45 44 44 44 47 45 47 44 43 44 45 44 44 45 42 40 40 42 44 45 47 47 43 48 48 45
39 40 42 44 47 47 46 44 43 44 46 47 46 45 44 42 42 42 41 39 39 37 39 42 44 44 46 47 47 46 44 44
39 40 41 42 46 47 46 44 42 43 44 44 44 44 42 39 39 38 37 38 37 39 37 41 43 43 44 44 46 45 44 44
39 39 40 42 43 45 45 43 42 42 43 43 43 42 41 40 40 39 40 38 36 37 39 41 41 43 44 43 43 42 42 41
38 38 40 41 43 44 45 43 41 40 41 42 42 43 40 41 42 41 39 37 36 39 40 43 44 43 43 44 44 42 41 41
37 39 40 41 41 42 44 43 40 40 41 43 43 43 42 42 42 41 38 38 36 41 43 41 41 41 41 41 42 42 42 40
38 38 39 40 40 40 42 39 38 40 41 42 40 40 40 40 40 38 37 38 41 41 40 40 40 39 39 39 40 40 39 40
37 37 39 39 39 39 38 39 39 37 35 35 36 37 37 38 36 36 37 39 38 39 39 39 38 37 36 37 37 35 34 33
36 37 38 38 37 35 36 36 31 30 30 31 33 35 35 35 37 37 38 37 38 38 39 38 36 35 32 31 31 29 28 28
35 37 37 37 35 35 32 28 28 30 31 33 34 34 37 37 38 38 37 37 37 37 37 37 34 31 30 29 28 26 25 25
35 37 37 36 34 31 27 27 30 32 32 32 32 35 38 38 40 39 40 38 36 37 35 31 29 25 24 24 23 25 24 23
36 37 36 33 31 29 28 28 30 32 32 31 32 36 36 38 38 37 36 35 28 27 26 25 25 23 19 25 24 24 22 22
38 34 32 32 28 28 27 28 30 32 31 30 31 32 31 32 32 31 29 28 28 25 24 24 24 19 27 25 25 23 21 21
32 31 32 32 29 29 26 26 28 29 30 28 29 30 30 30 29 28 27 27 24 24 24 23 23 23 25 24 25 23 22 22
32 34 33 29 29 29 27 25 25 27 27 27 28 30 30 28 25 24 24 23 24 23 24 23 23 21 27 25 25 23 23 23

GFSFLT1_sfc_dewp_030.txt.gz
Dewpoint
43 45 49 49 55 55 55 56 59 59 59 56 54 53 53 54 52 52 53 51 53 53 52 53 54 52 52 52 53 53 52 52
44 47 49 49 53 53 54 54 57 55 55 53 51 51 50 50 49 51 51 51 50 51 50 50 51 50 50 50 50 49 49 52
43 46 49 48 49 49 49 48 49 48 48 49 50 50 50 49 50 48 50 51 50 48 50 48 48 48 48 48 49 48 48 49
43 45 48 49 49 49 46 47 48 50 51 48 49 50 50 48 48 48 49 50 49 49 47 46 47 47 47 46 46 46 45 45
41 44 46 49 50 51 48 48 47 47 50 49 51 49 46 47 47 47 46 46 46 44 44 45 46 47 46 46 44 46 45 43
40 43 45 46 51 51 50 48 46 48 48 49 48 47 47 46 45 45 45 45 45 43 42 43 45 45 45 46 46 45 45 43
40 42 43 46 51 51 50 47 45 47 46 47 47 47 46 44 44 44 44 43 43 42 41 42 44 45 44 44 44 43 42 41
41 40 41 44 46 48 48 47 45 45 47 47 47 46 46 45 45 44 43 41 40 39 42 44 44 43 43 43 43 43 42 41
41 40 43 43 44 45 46 45 43 43 45 46 47 47 46 45 45 44 42 41 40 43 43 42 42 42 42 42 42 42 42 41
39 41 43 43 43 45 45 44 41 42 44 46 45 45 44 44 44 43 41 41 40 42 42 41 41 40 41 41 41 40 40 40
40 40 42 43 43 43 46 42 40 40 39 39 35 39 40 41 42 40 41 40 40 40 40 40 39 39 39 38 38 38 39 38
39 38 40 42 43 42 40 40 37 34 33 35 38 38 39 40 40 40 39 40 39 39 39 38 38 38 38 37 37 37 37 36
38 39 40 41 40 39 38 37 32 32 33 35 36 38 38 38 38 39 40 38 38 39 39 39 39 36 35 34 33 32 31 30
37 38 39 39 38 37 34 32 31 31 32 33 35 36 37 39 39 40 40 40 40 39 38 37 36 35 31 29 27 28 28 26
37 38 38 37 36 35 31 31 32 31 31 33 34 37 36 38 39 39 39 39 39 37 35 31 31 27 25 26 26 27 27 24
39 37 36 34 35 34 31 32 30 32 31 33 33 36 35 36 37 37 35 34 32 31 30 28 28 25 23 26 25 25 25 23
39 34 34 34 34 32 31 30 30 31 30 32 32 33 34 35 35 34 34 32 31 29 27 27 27 21 28 27 26 24 24 23
35 34 34 35 35 31 30 30 30 29 28 28 31 32 33 34 31 30 30 30 28 27 27 27 27 27 28 27 27 24 23 23
34 34 35 35 31 30 31 29 29 29 27 26 27 30 29 31 31 28 29 27 27 26 26 28 26 24 30 28 27 24 23 23

GFSFLT1_sfc_dewp_036.txt.gz
Dewpoint
47 47 49 49 50 52 55 56 59 59 58 56 52 50 47 49 49 48 49 51 50 49 48 47 47 47 46 45 45 45 46 45
47 48 49 49 52 50 51 52 53 53 52 51 49 48 46 47 48 49 49 48 47 46 45 45 45 45 45 45 45 44 43 45
45 47 51 49 51 51 47 45 46 46 47 47 48 48 47 45 46 45 44 44 43 41 42 43 43 43 43 43 43 43 44 45
45 46 48 47 46 45 45 44 45 46 46 46 46 47 45 43 43 42 43 43 42 41 41 42 43 44 43 43 43 42 42 43
45 45 45 44 44 44 44 44 45 45 46 45 44 44 42 43 42 43 43 42 41 41 42 44 44 44 43 43 43 42 42 41
44 44 45 45 44 44 44 44 44 44 44 44 45 43 44 44 43 43 42 41 41 43 44 43 43 43 42 41 41 40 41 39
43 44 45 45 45 44 44 42 42 43 44 44 43 43 42 41 42 42 41 40 42 43 42 42 42 41 41 41 40 39 38 38
43 44 44 45 44 43 42 40 40 44 44 43 42 42 41 41 42 40 39 39 41 41 41 40 40 40 40 39 39 38 37 36
40 41 43 41 41 41 41 40 41 43 39 37 37 38 39 40 40 40 40 40 41 41 40 39 39 39 38 38 37 37 37 35
39 41 40 39 40 41 40 40 36 34 34 34 35 35 36 39 39 39 39 39 40 40 39 39 39 38 38 37 37 36 36 36
39 39 40 40 40 39 37 33 31 31 32 33 34 35 39 38 38 38 37 38 38 38 38 38 37 39 39 38 37 37 36 36
39 39 39 38 37 33 30 30 29 29 31 32 33 34 37 38 38 38 38 38 38 38 38 38 38 37 37 36 35 35 34 31
38 37 36 36 36 31 29 29 29 29 30 32 32 33 37 38 38 38 38 36 38 38 38 37 36 36 35 32 30 29 27 26
38 37 35 35 35 35 31 30 29 29 30 31 31 32 36 36 37 38 37 37 37 37 37 35 32 31 28 27 27 26 25 25
37 35 34 34 35 35 35 33 31 29 31 30 31 32 35 34 36 36 36 37 36 35 32 31 29 27 25 25 25 24 24 24
35 34 34 34 35 35 36 34 32 32 30 30 30 32 34 35 35 34 37 35 33 32 27 28 27 25 24 25 24 24 23 23
35 34 34 34 34 35 36 35 33 33 32 31 32 32 34 34 35 35 34 32 34 27 26 27 26 23 29 27 27 24 23 23
35 34 34 34 34 35 30 29 31 31 31 33 33 33 34 34 34 35 36 36 29 25 27 27 25 25 29 29 30 27 24 23
34 34 34 34 33 26 25 23 24 25 31 32 34 34 33 34 35 35 33 32 28 25 27 26 25 24 29 30 30 27 25 25

GFSFLT1_sfc_dewp_039.txt.gz
Dewpoint
47 48 49 52 54 55 57 59 60 59 57 55 52 48 48 48 48 48 48 48 48 47 45 45 46 46 45 44 44 43 43 44
48 48 49 51 53 54 55 55 55 53 52 51 49 48 49 48 43 45 44 44 43 43 43 43 43 42 42 43 43 42 42 44
46 48 50 51 52 52 50 49 47 49 47 47 48 46 44 44 43 43 43 42 41 40 41 42 43 43 43 43 43 43 43 43
46 48 49 49 47 44 44 44 45 45 46 46 46 46 44 42 42 41 42 41 41 41 42 43 43 43 43 42 41 40 40 41
46 46 44 43 44 44 44 45 45 45 45 44 43 42 41 42 42 42 41 41 41 43 43 43 43 42 41 41 42 40 40 39
43 43 43 43 44 43 44 44 44 44 44 44 43 43 43 43 44 43 41 41 43 43 43 42 41 41 41 40 39 39 39 38
44 44 44 44 45 43 41 41 42 44 44 43 43 42 42 41 42 41 41 40 42 41 41 40 40 40 39 39 38 37 37 37
43 44 44 45 44 43 41 41 43 43 42 41 41 41 40 40 41 40 39 38 40 40 40 39 39 39 38 38 37 36 36 35
43 44 44 43 42 41 40 42 41 37 35 35 36 37 37 38 39 39 39 40 40 40 39 39 38 38 37 37 36 36 36 35
39 41 40 40 40 40 40 37 34 33 34 34 34 35 36 38 38 38 38 39 40 39 39 38 38 38 38 37 35 35 35 35
39 40 39 39 39 38 35 31 30 31 31 33 33 34 38 38 38 37 37 37 37 37 37 37 37 37 37 37 35 34 34 34
37 37 37 37 36 30 30 29 29 28 30 32 33 33 37 38 37 37 38 37 37 37 37 38 37 35 35 34 33 30 28 26
37 36 35 35 35 31 29 29 29 29 29 31 32 33 34 37 37 38 38 37 36 36 36 37 36 33 31 28 28 27 25 24
36 35 35 35 35 36 35 33 31 29 29 30 31 31 32 35 36 37 37 36 36 36 37 37 33 30 28 26 26 24 24 24
35 35 34 34 35 35 36 36 34 32 31 31 31 31 31 33 35 36 36 36 37 36 35 33 30 27 26 25 24 24 24 24
35 34 34 34 34 35 35 34 32 32 31 31 32 33 33 34 34 35 35 37 35 35 36 31 29 26 24 25 24 24 24 23
35 34 34 33 34 34 30 28 28 29 28 32 33 33 33 34 34 34 34 35 35 37 32 29 28 23 29 29 28 25 25 24
35 34 34 33 31 28 22 23 25 25 29 32 33 33 33 32 32 35 34 34 34 32 28 28 25 25 29 29 30 28 26 25
34 34 30 28 22 19 22 21 23 25 30 32 34 34 34 34 34 33 31 31 30 30 26 25 24 24 29 29 28 25 24 24

GFSFLT1_sfc_dewp_042.txt.gz
Dewpoint
48 50 53 55 57 58 59 60 59 57 57 56 55 53 47 46 47 47 45 46 46 45 45 45 44 43 42 43 42 42 41 44
48 49 52 55 55 57 59 58 58 57 55 52 48 47 47 44 43 43 43 42 43 42 42 41 42 42 43 44 43 42 42 43
47 48 50 51 53 54 54 52 51 49 47 48 45 44 43 42 42 42 41 40 40 40 41 42 42 42 42 42 41 41 41 42
47 48 49 50 47 44 44 45 45 46 46 46 45 44 43 41 41 41 41 41 41 41 42 42 42 42 41 40 40 39 38 39
46 46 43 43 43 44 44 44 44 44 44 42 41 41 40 42 42 41 40 41 42 43 43 42 41 41 39 39 40 39 38 37
43 43 43 43 44 43 44 44 44 44 44 44 43 42 43 43 43 42 41 41 43 42 41 40 39 40 40 39 39 38 38 37
43 43 43 43 43 42 42 42 43 44 43 43 42 42 41 40 41 41 40 40 41 41 40 39 39 39 38 38 37 37 36 36
43 43 44 44 44 41 40 42 43 42 41 40 40 40 39 37 38 38 39 38 39 40 39 38 38 38 37 37 36 35 35 35
43 44 44 44 42 41 40 43 39 35 35 35 35 35 35 36 37 39 39 39 39 39 39 38 38 37 37 36 36 35 35 35
41 41 40 40 40 40 40 36 33 33 33 34 33 34 35 36 37 38 37 38 39 39 38 37 37 37 37 36 35 35 34 34
39 39 38 39 38 37 33 31 30 30 31 32 33 33 35 37 37 37 37 37 37 37 37 36 37 37 37 36 36 34 33 33
36 36 36 35 31 30 29 29 28 28 28 31 32 33 34 37 37 37 37 37 37 36 36 37 37 36 35 34 33 30 27 26
35 35 35 35 35 35 32 32 32 30 30 30 31 32 32 33 35 37 37 37 37 35 36 36 36 35 33 30 28 26 25 24
35 35 34 34 35 36 36 35 35 32 31 31 31 31 31 31 32 34 36 36 36 35 36 35 35 33 28 27 26 24 24 24
34 34 34 34 34 35 35 32 31 30 29 29 30 31 31 31 33 34 34 35 35 35 34 34 35 30 26 25 25 24 23 24
34 33 33 33 33 33 30 28 28 28 27 29 31 32 31 32 32 33 34 35 34 34 35 36 32 26 23 25 24 24 24 24
34 33 33 32 31 29 24 23 24 26 25 30 32 32 32 32 32 32 34 34 34 35 35 33 28 25 29 30 30 28 27 26
34 33 32 30 27 24 20 22 23 25 26 30 33 33 33 33 33 34 33 31 32 30 28 28 25 25 29 29 29 25 24 23
33 32 27 24 19 19 21 22 23 24 28 30 32 31 32 33 33 33 32 33 33 32 27 25 23 25 28 28 26 23 21 21

GFSFLT1_sfc_dewp_045.txt.gz
Dewpoint
51 55 57 58 59 60 60 60 60 58 57 56 55 53 48 48 49 46 48 47 47 46 45 45 44 43 43 43 43 41 41 41
53 55 58 59 60 60 61 59 58 57 55 53 49 48 47 45 44 45 45 44 44 46 44 44 44 43 44 44 41 41 38 41
50 53 56 58 59 60 59 58 56 54 51 49 47 46 45 44 44 44 44 44 45 44 45 43 44 42 43 43 42 38 37 41
47 49 51 53 55 55 53 52 53 52 50 48 47 46 46 44 44 43 43 44 44 45 45 44 44 43 40 41 41 40 36 39
46 46 46 47 48 48 48 47 47 48 48 47 46 44 43 44 45 43 42 44 44 44 44 44 44 42 41 40 39 41 40 36
45 44 44 44 46 47 47 47 46 47 47 47 46 46 45 45 46 45 45 45 44 43 43 43 42 41 41 41 40 39 39 37
44 44 44 44 47 47 46 46 45 46 46 46 46 46 44 42 42 42 42 43 43 43 42 42 42 41 40 39 40 39 39 38
44 44 44 44 44 44 44 44 43 44 43 43 43 41 39 37 37 36 38 39 41 42 43 43 41 41 41 40 40 39 39 38
44 45 45 46 45 43 44 43 40 37 39 38 39 37 36 36 38 38 39 39 40 42 43 42 41 41 41 41 41 40 41 41
44 45 46 45 44 43 45 39 36 35 36 37 37 38 38 38 40 41 41 41 40 42 42 41 42 41 41 41 41 40 41 40
41 41 41 40 41 39 38 35 34 33 33 35 35 36 37 38 40 41 41 40 40 40 41 40 40 39 40 41 40 38 38 38
37 37 36 34 34 34 33 32 31 33 32 33 35 35 35 36 36 37 37 39 39 40 40 38 37 38 39 38 36 34 31 30
35 36 36 36 37 36 36 37 36 34 33 34 33 34 35 35 34 34 37 37 39 40 40 37 37 37 37 34 32 29 28 26
35 34 34 35 36 36 34 32 29 29 27 28 30 33 33 32 33 34 34 35 36 38 38 38 37 35 34 33 28 26 26 25
34 33 33 34 34 33 28 28 28 27 26 27 32 33 33 33 34 33 35 36 37 37 36 36 37 35 33 30 26 26 25 25
33 32 33 32 30 28 25 25 25 26 26 27 32 34 34 33 33 35 36 37 37 36 37 35 35 33 30 28 26 26 26 26
32 33 31 29 28 24 22 23 25 27 26 28 32 34 33 33 34 35 36 36 35 34 34 33 31 28 29 30 29 27 25 22
33 33 29 29 23 22 21 23 25 26 26 28 30 33 32 32 33 34 34 35 34 34 32 30 29 27 29 29 27 23 20 19
34 31 27 22 21 22 24 24 25 26 26 27 28 31 31 33 34 33 34 35 36 33 33 28 26 25 26 27 25 22 21 17

GFSFLT1_sfc_dewp_048.txt.gz
Dewpoint
52 53 55 53 57 59 60 61 60 59 60 59 59 56 50 50 48 48 49 48 48 47 47 48 46 45 45 44 43 41 39 37
54 56 57 58 59 60 61 61 60 61 59 56 52 49 47 47 45 47 47 46 46 48 46 46 46 45 44 43 40 38 35 37
54 56 58 58 59 59 60 59 59 59 57 52 49 48 45 44 45 47 47 47 47 46 47 46 44 40 41 41 40 36 34 35
53 55 57 59 59 59 57 58 58 55 51 49 48 48 46 44 45 44 46 46 46 47 46 44 42 39 36 39 38 38 34 34
48 46 48 51 53 53 52 53 52 51 51 47 46 43 42 45 47 46 45 47 46 44 42 41 41 40 39 37 34 39 36 33
42 42 44 44 49 49 49 47 47 48 48 47 47 46 46 46 46 45 45 44 43 40 40 41 40 38 39 40 39 38 36 34
41 42 43 45 50 50 49 47 46 47 48 48 48 46 42 40 39 37 36 36 36 38 38 40 41 40 40 39 39 39 38 37
42 43 43 45 46 48 48 46 45 46 46 45 42 40 37 36 36 35 34 32 33 35 37 40 39 40 41 40 39 39 38 37
43 43 44 45 46 47 46 45 43 42 41 39 39 37 37 36 36 36 35 35 35 38 40 41 41 41 41 40 39 38 39 39
44 44 46 46 47 47 47 43 40 38 38 37 37 38 37 37 38 39 38 40 37 39 40 41 41 40 40 40 39 38 38 39
44 45 47 46 46 46 44 39 35 34 34 36 34 36 36 37 39 38 37 37 36 37 37 37 37 38 38 38 37 35 36 36
43 43 43 43 41 39 37 34 34 35 34 35 37 35 32 32 32 31 31 32 29 30 30 33 34 35 37 37 37 35 34 33
40 39 37 37 36 36 36 38 36 36 36 31 28 29 29 28 28 29 31 30 31 31 32 34 34 35 37 37 35 36 33 30
38 37 37 37 37 36 34 34 30 26 24 25 26 26 27 27 28 29 30 31 32 32 33 34 34 36 35 36 34 35 31 28
37 36 35 34 34 32 31 28 25 24 23 23 23 27 28 29 29 30 32 32 33 34 34 35 36 36 35 35 32 30 29 27
35 34 33 32 30 28 25 23 25 25 22 21 24 29 30 30 30 32 32 34 33 33 34 34 35 33 30 31 29 28 28 27
34 32 31 29 26 23 21 23 25 25 22 23 24 28 29 31 32 32 33 32 32 33 32 32 31 28 29 29 29 26 25 23
32 31 29 27 24 21 22 23 25 24 23 21 22 25 27 30 30 31 32 33 33 33 33 32 31 30 29 30 26 24 23 21
32 32 28 24 22 22 25 23 23 22 22 22 23 25 27 28 31 31 31 32 33 32 33 33 31 27 28 27 25 24 23 22

GFSFLT1_sfc_dewp_051.txt.gz
Dewpoint
49 50 51 49 51 55 60 61 61 60 62 60 59 58 57 54 51 50 50 49 48 47 48 49 47 46 46 45 44 41 38 36
51 53 54 53 56 58 61 60 61 61 60 57 54 53 52 49 46 47 47 47 47 49 46 46 47 43 44 43 40 39 36 35
53 55 57 57 58 59 60 59 59 58 54 54 53 50 46 44 46 48 47 48 47 45 48 45 44 42 40 40 40 37 35 34
53 55 57 58 58 58 59 57 57 54 51 49 49 47 47 44 46 46 47 47 46 46 45 44 42 39 36 39 39 37 34 33
52 53 55 56 56 55 52 52 51 49 49 46 47 41 42 46 46 46 46 47 45 42 41 40 41 40 40 39 35 39 37 32
46 47 48 49 51 51 51 50 48 49 47 47 46 46 47 46 46 45 44 44 42 40 38 39 40 39 39 40 40 38 36 34
41 42 43 47 50 50 49 47 46 48 48 48 48 47 45 43 41 40 38 36 35 36 35 39 39 39 39 38 43 41 39 38
40 41 42 46 48 49 48 46 45 48 49 48 46 44 41 40 39 37 36 33 33 35 37 38 36 37 38 40 41 41 38 38
41 42 43 45 47 48 47 46 45 46 45 43 42 39 39 38 37 36 36 36 36 38 38 37 37 37 40 38 42 41 39 41
41 42 44 46 47 48 48 46 44 43 41 39 39 39 40 39 38 39 37 38 33 34 36 36 35 35 35 38 39 39 40 39
42 43 46 46 47 47 49 46 41 37 37 38 36 39 37 37 37 35 34 33 31 30 31 30 30 32 33 33 38 37 38 39
43 44 46 47 47 47 44 40 37 36 35 37 39 36 33 32 31 30 29 30 29 29 29 30 31 31 31 33 37 36 33 34
43 44 45 45 44 42 39 38 37 37 37 39 30 30 30 29 27 27 30 30 31 31 31 30 31 30 31 32 32 33 32 32
42 42 41 40 40 38 39 37 36 35 31 25 26 26 25 26 26 28 29 30 31 31 31 31 31 34 36 35 34 34 34 33
40 40 39 39 39 38 34 34 32 27 23 22 23 24 27 28 29 29 31 31 32 31 31 31 34 34 33 32 32 31 31 30
39 39 38 37 36 33 32 31 27 25 23 21 22 26 27 28 29 31 31 32 31 30 31 31 32 32 30 29 30 30 28 28
38 37 37 35 33 30 30 26 24 25 21 20 21 23 24 26 29 31 31 30 30 31 32 33 33 30 30 30 29 27 26 23
38 36 35 33 30 28 24 24 24 23 21 19 20 22 23 25 25 26 29 31 30 32 33 32 34 34 31 30 26 25 25 23
37 35 33 30 27 23 25 22 21 21 19 19 20 22 24 25 27 29 30 30 30 31 32 33 33 35 30 28 26 25 24 23

GFSFLT1_sfc_dewp_054.txt.gz
Dewpoint
45 47 49 47 56 59 62 61 60 59 60 60 59 60 58 57 55 53 53 52 52 52 52 50 50 48 48 47 45 43 42 40
50 52 55 53 57 61 62 60 59 60 59 58 55 55 54 52 51 51 51 50 50 51 51 50 49 47 46 43 42 41 40 40
51 54 57 57 60 61 61 60 59 59 59 58 56 54 52 50 51 51 51 50 49 48 49 47 47 45 43 43 42 41 39 40
52 55 58 60 61 61 59 59 59 59 57 54 54 53 51 49 50 50 50 49 48 47 47 46 44 43 42 42 41 40 38 38
52 56 57 59 58 60 59 59 58 56 53 52 51 47 47 49 50 50 49 50 46 45 43 43 43 43 42 42 39 40 39 37
51 55 56 57 59 59 57 54 52 52 51 51 51 50 51 50 49 48 47 47 46 44 42 43 42 43 43 43 43 42 40 38
49 51 52 52 56 56 56 51 49 51 51 52 50 51 48 47 46 44 44 42 41 40 39 42 43 42 42 42 40 41 41 40
45 45 46 48 50 52 51 48 48 50 51 51 51 48 45 43 43 43 41 40 40 41 42 41 41 40 41 41 41 41 41 40
43 43 46 48 50 50 49 47 47 49 50 48 47 44 45 43 43 40 42 41 41 42 41 40 40 40 40 40 41 41 41 41
41 43 46 48 49 50 51 48 47 48 47 46 44 44 42 41 41 42 42 41 34 37 37 36 36 37 37 38 37 39 38 39
42 43 46 47 48 49 52 50 45 42 42 43 41 40 40 43 40 39 38 36 35 35 35 35 35 35 36 36 35 37 37 38
42 43 46 48 50 49 50 48 41 40 40 41 41 42 40 36 35 35 33 34 34 34 34 34 34 34 35 35 36 34 35 35
43 44 47 48 48 48 47 44 41 39 40 41 43 41 35 34 34 32 34 33 35 34 35 34 34 34 37 36 35 35 34 33
43 45 46 46 47 46 43 41 39 39 37 39 35 32 31 31 32 33 33 33 34 34 34 35 34 35 34 34 34 33 33 34
43 44 44 44 44 41 41 39 39 36 35 28 29 28 30 33 34 33 34 34 34 34 34 34 35 33 34 33 30 32 32 31
42 42 42 41 41 41 38 37 35 32 28 27 28 31 31 32 33 35 35 35 34 34 34 34 35 34 32 32 31 30 31 30
40 40 40 40 39 37 35 34 32 30 28 25 27 28 28 31 33 34 34 34 33 34 34 34 34 32 32 31 29 28 28 27
39 40 40 39 38 35 33 30 30 27 26 23 25 27 27 30 29 29 32 34 34 34 33 33 33 33 32 31 27 25 26 26
40 40 39 37 34 30 30 25 25 25 24 22 23 26 26 28 30 31 33 34 33 32 31 32 34 33 34 32 28 25 26 26

GFSFLT1_sfc_dewp_057.txt.gz
Dewpoint
42 44 51 55 57 60 60 59 58 58 58 57 57 57 56 55 52 52 51 51 51 51 49 48 47 45 45 44 41 40 39 39
45 49 49 55 60 60 59 57 58 58 57 56 56 54 54 52 51 51 50 49 49 49 48 47 45 43 42 41 40 38 38 39
50 51 53 59 60 60 58 57 58 58 57 57 54 53 51 49 49 49 49 48 48 48 46 44 42 40 41 40 39 38 37 38
52 54 59 60 60 59 58 58 58 58 58 58 53 51 49 48 48 47 47 48 46 45 43 43 41 40 39 38 38 37 36 37
53 57 58 59 60 60 59 59 58 59 59 53 51 46 45 46 48 48 47 47 45 43 41 40 40 41 39 40 39 38 38 36
54 56 57 58 59 59 58 58 58 56 51 50 47 47 48 49 49 48 48 47 45 43 41 39 40 41 41 41 41 38 38 36
56 56 57 57 57 58 58 54 49 48 49 49 48 47 45 43 42 42 42 40 40 40 40 40 39 38 38 39 39 39 39 39
53 54 53 52 51 51 48 48 47 48 49 47 43 42 40 40 40 41 39 39 40 40 39 38 38 38 38 39 38 39 40 39
47 47 48 48 48 47 46 47 47 49 46 44 42 43 42 41 40 41 40 40 40 36 34 34 34 34 35 35 36 37 39 39
44 46 47 48 48 48 47 46 48 48 44 42 41 40 39 39 40 41 42 37 32 33 33 32 33 33 34 34 35 34 37 37
42 45 47 48 48 49 49 47 45 41 41 41 39 38 38 41 40 39 35 32 32 32 32 32 32 33 34 35 36 36 36 36
42 43 47 47 48 48 47 41 40 39 37 38 38 38 40 37 35 33 30 31 31 32 32 32 33 34 36 36 35 34 34 33
42 43 46 47 48 48 41 39 38 38 38 40 41 42 38 33 31 30 31 30 32 32 33 33 34 36 34 34 33 33 33 31
42 45 47 47 47 44 40 38 38 41 43 39 40 40 30 29 30 31 31 31 31 32 33 33 34 34 32 33 33 33 31 31
43 45 46 46 45 40 39 41 40 38 36 37 33 29 31 31 31 31 32 32 32 33 33 34 34 33 33 33 31 30 31 31
43 43 43 44 41 40 38 38 36 36 32 27 31 30 29 29 30 32 33 34 33 33 34 34 34 33 32 32 32 31 29 28
42 43 42 40 39 36 36 36 35 29 27 27 29 29 27 29 30 31 32 32 32 33 33 33 33 32 32 31 29 28 31 28
40 40 40 39 37 35 33 31 29 27 26 27 27 28 28 29 29 30 31 32 33 33 31 31 32 33 33 32 32 28 27 27
40 39 37 34 31 29 26 25 26 26 25 24 26 27 27 29 30 31 32 32 31 31 31 30 31 33 34 33 31 29 25 25

GFSFLT1_sfc_dewp_060.txt.gz
Dewpoint
53 54 51 53 54 57 59 58 58 57 57 56 56 55 54 54 52 51 50 51 51 50 48 47 45 43 43 41 38 39 38 37
53 53 52 53 57 58 58 57 57 57 56 55 54 53 54 52 51 51 49 49 49 47 47 44 43 41 41 39 39 37 36 37
46 49 54 58 58 58 58 57 57 56 56 56 55 54 53 51 50 49 48 48 48 46 44 42 41 40 39 38 38 37 37 37
49 52 58 59 58 58 57 57 57 56 56 56 53 50 49 48 48 47 47 47 46 45 43 42 40 40 39 38 38 36 35 36
55 58 59 59 58 58 57 57 57 56 58 56 52 48 46 47 47 47 47 46 44 43 42 41 40 41 39 40 39 38 37 36
56 58 58 59 59 58 58 58 58 58 58 55 51 47 46 48 48 47 47 46 45 43 41 40 40 41 39 38 39 37 38 36
56 58 59 59 59 58 58 57 58 57 55 51 49 47 47 47 46 44 43 41 42 41 39 39 38 38 38 38 38 38 38 38
56 56 57 57 57 57 56 54 49 49 48 47 46 43 42 41 41 41 40 40 41 39 39 36 36 35 34 34 34 34 36 38
55 56 55 55 54 54 51 48 48 46 43 42 42 41 41 41 41 42 41 41 39 39 35 33 32 33 33 34 34 34 35 37
53 52 51 49 47 47 47 47 48 44 42 41 41 41 40 41 42 42 43 41 36 34 32 32 32 32 34 35 35 35 35 35
49 50 48 48 47 47 47 47 46 42 41 40 40 39 41 41 42 42 38 35 33 32 31 31 31 34 36 35 34 34 34 33
47 48 48 48 48 47 47 45 42 40 39 39 39 40 41 40 37 36 33 32 32 31 32 31 32 35 36 34 34 34 33 32
44 47 47 48 48 46 44 42 39 37 38 40 41 41 41 39 33 32 33 31 32 32 32 32 33 36 35 33 32 33 32 31
42 45 46 47 47 42 40 39 37 39 42 41 44 44 32 31 32 31 31 30 31 31 32 33 34 36 33 32 33 33 33 31
42 45 46 47 42 39 38 40 43 44 42 42 37 33 32 31 32 31 32 32 32 33 34 34 35 34 33 33 33 31 30 31
45 46 47 41 39 40 42 42 43 40 34 30 32 31 31 30 29 29 30 33 33 34 34 34 34 34 33 33 32 32 29 28
45 46 44 43 43 42 41 38 33 28 27 28 30 30 28 30 29 30 31 31 33 33 33 33 33 32 33 33 30 28 31 32
44 44 43 42 41 40 35 28 27 26 26 28 29 30 28 28 28 30 30 32 32 31 31 31 31 32 34 32 32 30 30 27
41 40 38 36 33 29 26 24 25 26 26 26 26 27 28 29 29 30 30 32 30 29 30 31 30 31 34 34 33 27 28 27

GFSFLT1_sfc_dewp_063.txt.gz
Dewpoint
54 56 57 54 54 55 59 58 57 56 56 55 55 54 54 53 52 51 51 51 50 48 47 47 44 43 41 39 37 38 37 35
52 56 55 53 53 57 58 57 56 56 55 54 53 52 52 50 50 50 50 50 49 47 45 43 42 41 39 38 38 36 36 36
51 54 52 54 56 57 57 57 56 56 55 55 55 53 52 50 50 49 49 48 47 45 43 42 40 41 39 38 37 37 37 37
49 52 52 56 56 57 57 57 56 56 56 54 52 51 49 49 48 47 47 48 46 45 43 42 40 40 38 37 37 36 35 36
47 49 55 56 56 57 57 57 57 57 56 55 53 49 47 48 47 47 47 47 46 44 42 41 40 40 39 39 39 37 37 36
45 49 55 57 57 57 57 57 57 57 57 56 52 48 47 47 47 46 47 45 44 42 40 40 40 40 38 37 37 37 38 36
51 52 57 58 58 57 57 57 57 57 57 55 52 48 47 47 47 46 43 42 42 40 39 39 39 39 37 36 35 35 36 37
56 56 57 58 58 57 57 57 56 56 56 53 51 48 47 47 45 42 40 40 40 39 40 40 37 33 33 33 33 33 33 34
55 57 57 57 57 57 57 56 51 51 50 49 46 44 44 43 41 41 42 41 39 41 41 36 33 32 33 33 33 34 35 35
55 56 56 57 56 56 53 50 47 44 44 43 41 42 42 41 42 43 44 44 42 39 35 33 32 33 34 34 34 34 33 34
55 55 55 55 55 54 49 48 44 42 41 41 40 41 41 42 45 45 44 42 37 35 33 33 32 33 35 35 34 34 33 32
53 53 53 52 50 49 48 47 43 41 41 40 40 41 42 43 42 42 41 37 34 33 33 32 32 34 35 34 33 33 31 32
51 52 50 47 47 47 47 46 42 40 40 38 41 42 41 43 44 42 35 32 33 33 32 32 32 33 35 33 31 32 31 31
49 50 49 47 47 46 43 40 38 38 40 42 44 45 43 39 35 35 31 31 31 31 32 32 32 33 35 33 32 32 32 32
45 47 48 48 46 42 38 39 41 42 43 45 43 40 38 33 32 32 32 32 31 32 33 34 34 34 34 33 33 33 31 31
42 46 47 44 42 40 40 42 45 45 44 40 38 37 32 31 31 29 29 32 31 32 33 33 34 34 33 33 33 32 31 29
45 47 45 42 42 43 42 43 44 40 37 34 33 31 30 30 30 29 31 30 32 31 31 32 32 32 33 35 33 30 29 29
46 45 42 42 42 42 42 39 37 31 32 30 31 31 29 29 30 29 29 30 31 30 30 29 30 31 33 35 33 29 29 29
44 44 42 41 39 33 30 28 30 28 28 27 28 29 30 30 29 29 29 31 31 30 29 29 30 30 33 34 33 30 28 28

GFSFLT1_sfc_dewp_066.txt.gz
Dewpoint
55 57 57 56 56 55 58 57 56 55 55 55 54 54 54 54 53 51 49 49 49 49 47 46 45 43 40 39 38 38 37 36
54 56 56 54 54 57 57 56 55 55 55 53 52 52 52 52 50 50 50 49 48 47 45 43 42 40 38 38 38 36 37 36
52 55 55 53 53 56 57 56 55 55 54 54 53 52 52 50 50 50 50 49 48 45 43 41 41 39 39 38 37 37 37 37
49 53 55 53 54 56 57 56 56 55 55 55 53 53 50 49 49 48 48 48 47 44 43 41 40 39 38 37 37 37 35 36
49 51 54 53 54 56 57 57 56 56 55 54 53 52 49 49 48 47 47 47 46 44 42 41 40 40 39 39 39 37 37 35
49 49 53 54 55 55 56 56 56 56 56 55 55 53 49 48 47 46 46 44 43 42 41 41 41 41 39 38 38 37 37 36
47 48 53 55 55 55 55 56 57 57 56 56 55 52 48 47 46 46 44 43 41 41 41 41 39 39 38 35 35 34 35 36
47 51 55 55 56 56 56 57 56 57 56 57 55 51 47 47 46 44 41 41 40 40 40 41 38 36 35 34 33 32 33 33
50 52 55 56 57 57 57 57 56 56 56 56 53 50 49 47 45 41 41 41 40 43 43 42 36 34 33 34 33 34 35 35
52 54 55 56 56 57 57 57 55 54 54 52 49 49 46 44 42 42 44 42 43 44 43 40 34 33 34 34 34 34 34 34
53 55 55 56 57 57 57 55 53 49 48 48 46 43 42 42 43 44 44 44 43 44 39 35 34 34 34 34 34 34 34 34
53 55 55 56 57 55 54 51 46 44 44 43 43 41 42 44 44 44 44 44 44 38 35 34 34 33 35 35 34 34 33 32
53 54 54 54 53 53 51 49 44 41 40 42 42 41 41 43 43 44 44 41 38 34 34 34 34 33 34 35 34 33 32 31
51 52 52 51 50 50 48 44 40 39 42 42 41 42 44 43 44 43 40 34 32 33 33 34 33 34 34 34 34 32 32 32
50 50 50 48 48 46 43 45 43 43 43 44 44 44 43 40 36 33 32 33 32 32 33 33 34 34 34 34 33 32 32 32
47 48 48 46 44 44 44 44 44 44 44 44 44 40 35 34 33 32 32 32 31 32 32 32 33 34 33 33 32 32 31 31
43 47 46 46 44 44 45 45 45 45 44 41 37 35 31 31 31 31 32 31 32 32 31 31 31 31 34 35 34 31 30 29
44 46 44 44 45 44 44 44 43 40 35 33 30 31 31 30 31 30 29 30 32 31 30 30 29 30 33 35 34 32 29 29
44 43 42 43 42 39 37 34 32 30 30 28 30 31 31 30 29 29 29 30 30 30 29 29 29 29 32 33 34 31 29 29

GFSFLT1_sfc_dewp_069.txt.gz
Dewpoint
53 53 54 54 56 57 59 60 60 59 60 61 61 61 61 60 59 58 55 52 53 51 49 49 47 44 43 42 42 41 40 40
53 55 56 56 57 57 59 59 59 58 58 59 59 59 58 58 57 53 52 51 52 52 48 48 46 44 43 44 42 42 41 42
53 55 57 57 56 57 59 58 58 58 57 57 57 57 56 56 53 52 51 51 51 50 48 46 46 43 44 44 43 41 41 41
53 54 56 57 57 57 58 58 58 58 58 56 55 55 53 52 52 50 50 50 49 48 47 46 45 44 42 44 43 42 39 41
52 53 54 56 56 58 58 58 58 57 57 57 55 54 52 52 50 50 50 51 49 47 46 46 45 44 44 44 43 42 41 38
52 51 53 55 57 57 59 58 57 57 57 57 56 55 55 53 50 50 50 49 48 46 46 46 45 44 45 44 44 43 41 36
52 52 52 54 57 58 59 58 57 57 57 57 56 55 54 51 49 49 48 47 46 46 43 45 44 43 42 42 41 40 38 38
52 50 51 54 56 57 57 57 57 58 58 57 57 56 54 52 50 49 48 46 44 44 44 43 42 41 41 39 38 38 38 36
49 50 52 54 56 57 57 56 57 58 58 57 57 56 54 52 50 49 48 46 44 44 44 44 42 42 39 37 37 37 38 40
46 49 52 54 56 57 57 57 57 57 57 58 57 55 54 52 51 50 48 46 43 45 47 44 44 39 37 38 36 37 39 40
47 49 53 55 56 57 58 58 57 57 57 58 57 55 55 52 50 47 45 44 44 47 45 44 40 37 37 38 37 37 38 39
48 52 53 55 56 57 57 57 57 56 56 56 55 53 52 49 48 46 45 47 45 46 45 41 36 36 36 37 37 37 37 37
51 53 55 55 56 57 57 56 55 54 52 51 49 47 47 48 46 46 46 45 47 43 40 36 35 34 35 36 36 35 36 36
52 54 55 55 56 56 56 53 49 46 46 46 47 46 45 45 45 46 46 44 42 38 36 35 34 35 35 36 36 36 36 35
51 53 53 54 55 54 52 49 46 45 45 45 45 44 45 45 44 43 39 37 35 34 34 35 36 35 34 35 35 36 36 35
49 51 52 51 50 50 49 46 46 46 46 45 45 44 42 40 38 36 37 36 33 32 33 34 35 34 32 34 34 35 35 35
46 50 49 48 47 47 46 46 46 46 45 43 42 40 37 35 34 35 36 32 32 33 33 34 33 29 32 35 34 33 33 33
44 48 48 46 46 45 46 45 45 44 43 39 35 32 31 34 34 31 31 33 34 33 34 33 32 33 33 34 34 32 32 32
45 45 45 45 45 45 44 41 38 35 32 30 31 33 32 32 31 32 33 32 32 32 33 33 33 30 32 32 33 32 32 33

GFSFLT1_sfc_dewp_072.txt.gz
Dewpoint
53 53 55 54 52 52 54 58 61 62 61 60 60 61 62 63 63 62 61 58 57 55 52 52 48 46 44 42 43 42 42 40
51 53 53 53 54 54 57 59 62 62 59 56 57 60 61 62 62 61 59 54 55 55 51 50 48 46 44 46 45 44 43 44
50 51 53 54 54 56 57 58 61 60 55 55 58 60 61 61 59 58 56 55 54 52 51 49 48 46 46 46 45 44 44 44
49 51 52 54 53 55 55 57 58 59 58 55 58 59 59 59 58 55 53 53 52 50 51 49 49 45 44 46 45 45 43 43
49 50 51 54 55 55 55 55 57 59 60 57 57 55 56 57 57 54 50 51 51 50 49 50 49 45 46 45 45 45 44 40
47 49 51 52 55 56 58 58 59 60 61 60 58 57 57 57 55 53 51 51 51 49 49 49 48 45 46 47 46 45 42 38
50 49 50 51 57 58 59 58 58 59 60 60 60 59 57 55 54 53 52 51 51 50 48 49 48 46 46 46 46 45 41 36
50 50 51 51 54 58 58 58 57 59 59 60 60 59 58 55 54 53 51 49 49 50 49 48 46 46 45 44 43 40 38 36
48 50 52 52 54 57 57 57 57 58 59 59 59 59 58 56 55 52 51 50 49 50 49 47 46 43 44 43 41 38 39 38
45 49 52 53 55 56 57 56 56 57 58 59 59 59 58 57 56 56 53 52 49 49 48 47 46 45 45 40 38 39 38 39
43 45 50 53 54 55 57 56 55 57 58 58 57 58 58 57 57 55 53 51 48 48 48 47 45 44 40 39 38 38 37 37
43 45 48 51 54 55 56 55 54 56 58 57 57 58 58 57 55 53 51 48 47 47 47 47 48 41 38 39 38 36 36 36
46 47 49 51 53 55 55 56 56 56 57 57 58 56 54 51 51 49 49 48 48 49 48 45 39 36 37 36 35 33 35 35
47 50 51 52 53 54 54 56 56 56 56 55 51 50 50 50 49 49 48 48 48 45 42 38 36 35 34 35 34 34 35 35
44 49 52 53 54 55 55 56 55 53 52 51 50 49 48 47 47 46 45 43 41 39 39 36 35 34 33 34 32 33 33 32
39 46 51 53 55 56 55 53 51 50 49 47 47 47 46 44 43 43 42 39 39 39 35 33 35 34 30 32 30 31 31 31
36 44 51 52 53 54 51 50 49 48 48 47 46 44 42 41 40 39 39 38 36 33 35 37 35 28 33 34 33 30 29 28
43 46 50 51 52 50 50 48 48 47 45 44 42 39 37 36 34 33 34 35 37 39 36 34 32 32 34 34 34 29 28 28
46 48 49 50 50 50 50 48 46 45 42 38 34 33 34 34 33 33 37 39 36 34 33 32 32 28 32 33 33 30 29 28

GFSFLT1_sfc_dewp_075.txt.gz
Dewpoint
53 54 54 55 55 55 57 59 60 60 61 59 57 59 62 64 64 63 62 60 59 57 55 55 52 47 46 44 46 44 44 43
52 52 52 51 53 52 53 55 59 61 61 56 54 54 61 63 62 62 61 59 59 58 54 54 51 48 46 48 47 47 45 46
50 52 53 50 51 51 52 54 59 60 56 53 52 54 60 62 62 61 60 58 57 57 55 52 50 47 48 49 48 45 46 46
47 50 52 52 51 52 52 55 58 60 55 51 52 59 58 60 60 59 58 57 57 55 54 52 50 49 47 49 48 47 45 45
46 49 51 52 53 55 55 55 58 59 61 54 55 58 56 57 59 58 56 56 55 53 52 51 51 48 48 48 47 48 47 43
46 47 48 51 53 54 55 55 55 57 59 60 55 55 55 59 59 57 56 55 54 52 51 51 51 48 49 49 49 48 45 44
44 47 47 49 56 57 57 55 54 56 61 61 59 57 56 57 57 55 55 54 52 53 50 51 51 50 49 48 49 47 44 43
45 43 46 48 51 55 57 55 55 56 60 61 61 60 59 58 57 55 55 53 52 52 51 52 50 49 48 48 46 45 44 43
45 46 46 47 52 55 56 55 56 56 58 60 60 60 59 58 57 56 56 54 54 53 53 52 50 48 47 46 45 44 45 45
40 45 49 49 51 53 57 56 55 56 57 60 61 60 59 59 58 58 56 55 52 53 53 51 49 47 47 45 43 44 41 41
39 41 46 50 52 52 57 56 54 55 56 59 60 59 59 59 59 58 57 56 55 53 52 49 48 46 46 45 43 40 40 40
40 42 44 48 52 53 55 55 53 53 56 58 59 59 59 59 58 57 57 55 51 50 48 47 47 48 48 43 40 40 37 38
40 42 44 46 50 52 55 56 54 53 56 58 59 59 57 54 52 52 52 50 50 48 48 48 50 47 43 41 40 37 36 35
39 43 45 47 50 52 54 55 54 53 57 58 56 52 52 50 50 50 50 49 49 49 48 46 44 43 40 37 36 36 36 36
37 42 45 48 50 53 53 55 55 56 56 55 53 52 50 49 49 49 48 47 46 45 46 45 44 39 35 34 35 35 34 32
32 37 45 49 52 53 53 56 57 56 54 52 51 50 49 49 48 47 46 44 44 43 42 42 39 33 33 36 33 31 29 29
31 35 42 50 53 55 55 54 53 52 50 48 49 49 48 45 44 44 43 41 40 41 40 35 36 35 34 33 31 29 27 27
39 39 46 52 54 53 51 51 51 50 49 48 47 46 44 42 39 39 38 38 37 38 36 39 37 34 35 34 34 29 27 26
44 47 50 52 52 51 50 49 48 47 45 44 43 42 39 37 36 35 36 37 39 39 37 34 33 30 35 34 34 30 29 29

GFSFLT1_sfc_dewp_078.txt.gz
Dewpoint
54 54 55 54 55 55 55 55 56 55 54 52 54 58 58 60 61 62 62 62 62 61 60 57 56 52 51 49 47 46 47 46
54 54 55 55 55 55 54 54 55 55 58 55 55 55 60 61 61 60 62 62 61 60 58 56 56 52 49 50 49 47 46 47
52 53 54 54 54 55 56 56 57 58 58 56 54 56 59 61 61 62 62 61 61 59 58 56 55 52 51 50 49 49 48 48
50 51 53 53 54 54 55 56 58 58 59 58 55 58 60 60 61 61 60 60 59 59 58 56 54 52 51 51 49 48 47 48
50 51 52 51 52 53 53 53 58 59 60 54 53 53 56 58 60 60 59 59 58 58 57 55 53 53 51 51 51 50 47 46
47 49 52 52 52 52 53 54 57 58 60 60 55 58 58 60 60 59 57 57 57 58 56 55 54 53 53 51 51 48 48 45
46 48 50 51 54 54 55 56 57 58 60 60 60 58 57 57 58 58 57 57 56 56 55 54 54 53 52 51 50 49 45 42
46 46 48 51 53 55 56 56 55 57 60 60 60 59 58 58 58 57 55 55 55 54 54 53 53 52 51 50 48 46 44 43
45 47 47 48 52 55 55 55 54 54 60 60 60 60 58 59 58 58 56 55 54 53 54 53 53 51 49 48 47 46 44 44
45 45 48 49 50 54 56 55 55 55 58 61 61 60 60 59 59 58 57 56 55 55 54 53 52 48 47 47 44 43 45 45
41 44 48 49 51 52 56 56 55 56 57 59 60 60 61 60 59 58 58 57 56 54 53 50 48 48 46 45 45 45 46 45
42 43 45 50 51 53 55 56 56 56 56 58 60 60 60 60 59 58 57 55 52 49 49 48 47 47 47 46 47 46 43 42
40 43 45 47 52 52 54 56 56 56 56 58 60 60 59 59 56 54 52 50 49 49 49 48 48 49 50 47 44 42 41 40
38 42 44 45 49 54 54 56 56 56 55 59 59 58 56 55 53 52 51 50 49 49 48 48 48 47 46 45 43 42 40 40
33 40 44 47 50 52 54 57 57 58 59 58 56 54 53 51 50 49 49 49 48 48 47 47 46 46 45 43 40 39 37 35
29 33 44 47 50 54 55 58 57 57 55 54 51 50 50 49 49 49 48 47 46 46 46 46 45 43 41 39 37 34 31 30
33 33 41 49 52 54 56 56 54 53 51 49 50 50 49 49 47 47 45 44 44 44 44 44 42 39 34 34 33 30 30 30
38 40 40 53 55 54 52 51 51 49 49 49 49 47 46 45 44 44 43 42 41 41 41 41 40 39 36 35 32 31 30 30
43 45 52 53 52 51 51 50 49 48 48 47 46 45 44 42 41 40 39 39 38 39 41 39 36 34 36 35 34 31 31 31

GFSFLT1_sfc_dewp_081.txt.gz
Dewpoint
54 54 55 55 55 54 54 53 54 55 53 51 50 51 56 58 58 59 57 59 60 61 60 57 56 52 49 47 44 46 43 44
54 53 54 54 54 54 54 54 54 53 51 49 48 49 57 57 58 59 59 59 60 60 57 57 53 50 48 47 46 44 44 45
52 53 53 53 53 53 54 54 54 52 52 48 51 53 56 57 59 59 59 60 60 60 56 55 54 50 48 47 46 46 47 45
52 53 54 53 53 53 52 53 53 52 54 53 55 56 57 58 59 59 60 61 60 60 56 55 54 51 48 47 47 47 45 46
52 52 53 53 52 53 51 52 52 54 56 56 56 53 55 57 58 59 60 59 58 58 58 55 53 51 48 49 49 48 46 45
50 52 53 53 51 52 52 54 56 56 57 57 56 54 56 58 59 58 58 58 57 57 57 55 52 50 49 50 49 48 47 44
49 50 51 52 51 52 53 53 55 57 58 58 57 53 56 57 58 58 57 56 56 56 57 55 52 51 50 50 49 46 44 43
49 49 49 50 50 51 52 51 52 57 58 58 58 56 56 57 57 57 56 55 55 56 56 54 53 52 51 50 49 46 43 41
48 49 50 51 50 50 50 50 51 55 58 58 59 58 57 57 58 58 57 56 55 55 54 53 53 51 50 49 47 45 44 43
46 47 49 50 51 52 50 50 52 54 57 58 58 59 57 58 58 58 57 56 55 54 54 53 51 49 49 48 47 45 45 45
45 46 48 50 51 51 54 54 54 54 54 58 58 59 59 59 58 57 56 56 55 55 53 50 48 48 47 47 46 46 45 45
40 46 47 48 51 52 53 54 54 54 54 59 59 60 59 59 58 57 57 56 55 53 49 48 47 48 48 47 46 46 46 46
37 38 44 47 50 50 51 55 55 55 56 58 60 60 59 59 58 57 55 52 50 49 48 48 49 48 48 47 47 47 46 44
37 39 40 49 50 51 52 55 56 56 57 57 58 59 58 57 55 54 53 51 50 50 49 48 48 48 49 48 46 45 44 42
34 40 41 42 51 52 54 56 56 57 57 57 57 56 56 54 52 52 51 50 49 49 49 48 48 48 47 46 45 43 42 40
29 40 42 45 48 54 56 57 57 56 56 55 53 52 52 51 51 50 49 50 49 48 47 47 47 46 45 44 43 38 31 29
32 34 43 48 54 56 56 55 53 53 52 50 50 50 50 49 49 48 48 47 47 46 47 47 45 43 39 37 34 30 29 28
37 42 52 54 54 53 51 50 51 50 50 50 50 49 47 47 46 45 45 45 45 45 45 44 43 41 35 34 33 30 28 28
43 53 52 51 51 50 50 49 49 49 48 48 47 46 45 45 45 45 44 43 42 42 41 41 40 33 35 34 32 30 30 31

GFSFLT1_sfc_dewp_084.txt.gz
Dewpoint
54 55 55 55 55 55 55 55 55 55 56 56 55 55 54 56 57 58 57 57 60 58 57 57 54 50 47 45 44 45 43 43
54 55 55 55 54 54 53 54 55 54 53 52 52 51 52 56 57 57 57 56 59 59 59 56 53 50 48 45 44 44 44 44
53 53 54 54 54 53 53 53 53 51 51 49 48 48 53 55 57 57 58 58 59 60 58 56 53 50 47 47 45 45 44 45
52 52 52 53 52 53 53 52 52 51 50 48 52 53 55 55 56 56 57 58 59 60 57 57 53 50 47 47 45 45 45 45
51 52 52 52 52 53 53 52 52 51 51 49 49 48 50 55 55 56 58 59 59 60 58 55 54 52 49 47 47 46 46 44
51 51 52 52 52 52 53 53 52 51 52 51 50 54 54 56 56 56 57 58 59 59 58 56 55 52 49 48 48 48 46 45
51 52 53 53 52 52 52 51 52 51 52 53 53 53 54 56 56 57 57 58 58 57 58 56 54 52 51 49 48 48 46 44
50 52 52 53 52 51 51 50 51 51 52 53 55 56 55 55 56 57 57 57 56 57 57 55 53 52 50 50 50 48 45 43
49 51 52 52 50 49 49 50 51 53 55 55 56 57 55 56 56 58 57 57 57 57 56 55 53 52 52 51 48 47 47 47
48 49 51 52 52 48 49 50 52 53 55 56 57 58 57 55 57 58 58 58 57 55 56 54 52 51 49 48 48 47 47 46
49 49 49 50 52 52 51 52 52 52 53 57 57 58 58 57 57 58 57 57 56 55 55 52 49 48 48 48 47 47 47 47
46 48 50 50 51 53 53 53 52 52 50 55 57 58 59 58 58 57 57 56 55 55 53 51 49 48 48 48 48 47 46 45
45 46 47 48 51 53 52 53 52 52 54 54 56 58 59 58 57 57 57 56 55 53 52 50 48 48 48 48 46 46 45 45
41 44 46 46 48 51 52 53 54 55 55 56 57 58 58 57 58 57 56 54 52 52 50 50 48 48 48 47 47 47 46 45
36 39 44 46 47 49 51 52 54 55 55 56 56 58 58 58 57 57 56 53 51 50 51 49 49 48 48 48 47 46 46 44
30 38 42 48 49 50 51 52 55 55 55 56 55 55 56 55 54 54 52 51 51 50 49 49 49 48 48 47 46 45 42 38
30 36 41 46 51 52 55 54 54 55 55 53 52 51 52 52 51 50 50 50 49 49 48 47 47 47 42 43 42 40 35 30
35 40 46 53 54 54 54 52 52 52 51 50 50 50 48 48 48 48 47 47 47 47 47 46 46 44 40 39 35 31 29 28
52 52 51 50 50 51 51 51 51 50 50 49 48 48 47 47 46 46 46 46 46 45 45 44 44 39 36 35 33 30 32 32

GFSFLT1_sfc_dewp_087.txt.gz
Dewpoint
55 55 55 56 56 55 55 55 55 56 55 55 56 56 56 57 58 58 59 60 59 57 56 55 54 52 50 46 43 43 41 40
54 55 55 55 55 54 55 55 55 55 55 53 53 54 55 56 56 57 57 58 59 57 56 55 53 51 49 45 44 43 43 43
53 54 54 54 54 53 54 54 55 54 53 49 50 52 54 55 57 56 57 56 58 58 57 56 52 50 47 45 44 44 44 44
51 52 54 54 53 53 53 53 53 52 52 50 49 52 54 53 55 56 56 57 57 59 58 57 55 52 48 46 45 44 44 45
50 50 51 52 53 53 52 53 52 51 50 49 48 47 47 48 52 55 55 57 57 58 58 57 54 52 49 47 46 45 45 43
50 51 52 52 52 52 52 52 52 51 50 50 48 48 48 53 54 55 55 57 58 58 58 56 55 52 50 49 47 46 46 45
51 51 52 52 52 52 52 52 51 51 50 50 49 49 51 53 54 54 55 56 57 57 58 56 55 54 51 50 50 50 48 47
51 50 51 52 52 52 52 52 51 51 50 50 50 50 52 52 52 54 55 55 55 56 56 56 55 54 52 52 51 49 48 46
50 50 51 52 52 51 51 51 51 51 51 50 50 51 51 53 54 55 56 55 55 56 56 57 55 53 52 50 50 48 48 47
48 49 51 52 53 52 51 51 50 50 51 50 50 52 52 53 55 56 56 57 57 56 57 56 54 53 52 50 48 48 47 48
48 48 50 52 53 53 52 51 50 50 50 51 51 52 53 54 55 55 56 57 57 56 55 55 53 51 50 49 49 48 48 47
48 49 49 51 52 52 51 51 50 50 50 52 53 55 56 57 57 56 56 57 56 55 55 55 52 51 50 49 48 48 47 47
46 49 49 49 51 52 50 50 50 51 52 53 53 56 57 57 57 57 57 56 56 55 54 53 52 51 50 49 48 47 48 46
45 46 48 49 50 51 52 52 50 51 53 54 53 54 56 57 57 56 56 56 55 54 54 53 51 51 50 49 48 48 47 46
43 45 46 48 49 50 51 52 53 53 53 53 53 53 56 57 57 56 56 56 56 55 53 52 51 50 50 48 48 47 47 46
37 41 44 46 47 49 51 53 53 53 53 53 53 54 56 56 56 56 57 57 56 53 52 51 51 49 49 48 47 47 46 45
31 36 39 44 47 48 49 51 52 54 54 54 53 53 55 55 54 54 52 51 52 52 51 50 49 49 43 43 45 45 44 41
30 31 38 41 48 51 51 51 52 52 53 52 51 51 50 50 50 50 50 49 50 49 49 49 48 48 44 42 39 40 37 35
44 50 50 50 52 52 52 52 51 51 50 50 50 50 49 49 48 48 48 48 48 47 47 47 45 44 40 38 36 35 34 32

GFSFLT1_sfc_dewp_090.txt.gz
Dewpoint
54 56 56 56 56 56 56 56 56 56 57 57 57 57 58 59 58 58 58 58 57 56 55 54 54 52 50 46 43 43 41 40
54 55 55 56 55 55 55 55 55 55 56 56 56 55 56 56 57 57 58 58 57 56 55 55 53 52 50 46 44 43 43 43
53 54 55 54 54 54 54 55 55 53 55 55 55 55 54 56 57 57 58 59 58 57 55 54 53 52 50 47 45 44 44 44
50 54 54 54 54 53 53 54 55 53 53 53 53 53 54 53 55 56 56 57 58 58 56 55 54 52 50 47 46 45 43 44
50 50 53 53 53 53 53 53 54 53 52 51 52 52 49 47 52 54 55 57 56 58 58 56 55 53 50 49 48 48 46 43
50 50 51 53 53 53 53 53 52 52 51 50 49 49 49 51 52 53 54 55 56 56 57 56 55 54 53 50 49 47 48 46
50 51 51 50 52 53 52 52 52 51 50 49 49 47 48 49 50 52 53 53 55 56 57 57 57 55 53 52 51 49 48 48
50 50 51 50 51 51 52 52 51 51 50 49 49 48 48 48 48 50 52 53 53 54 55 55 55 55 54 52 51 51 50 48
50 50 51 51 51 51 51 51 51 51 51 50 50 49 49 50 50 51 52 53 53 54 55 56 56 55 54 53 52 52 50 50
48 50 50 51 52 52 51 52 52 51 51 51 50 50 50 49 51 53 54 54 55 54 55 55 55 55 54 53 52 51 50 49
47 48 50 51 52 52 52 52 51 51 51 51 50 50 50 51 51 53 54 55 55 55 55 55 55 53 52 52 51 50 49 49
47 47 48 50 52 53 52 52 51 50 50 50 50 50 51 51 52 52 54 55 55 55 55 55 54 52 52 51 50 50 50 49
47 48 48 49 51 52 52 52 51 51 51 50 51 51 52 52 53 53 54 55 55 55 55 55 55 53 52 52 51 51 49 48
44 48 48 49 50 51 52 51 51 51 51 50 51 52 53 53 54 55 56 56 56 55 56 56 55 54 53 53 53 52 50 49
44 45 48 49 49 51 52 51 50 50 50 50 51 52 53 54 55 56 56 56 56 56 55 55 54 53 53 52 51 50 50 50
40 44 46 48 49 50 51 52 52 50 50 50 50 51 53 53 54 55 55 56 57 56 56 55 53 52 52 51 50 49 48 47
29 37 43 46 48 49 50 51 52 53 52 50 51 52 52 52 53 54 56 56 56 56 53 52 51 52 46 44 47 48 47 45
30 31 37 41 45 47 48 49 51 52 52 51 51 52 52 54 53 54 54 53 52 52 52 51 51 51 43 43 42 46 44 40
31 38 47 50 51 51 51 52 52 52 51 51 51 51 50 50 51 51 49 49 49 48 47 46 45 42 39 38 38 39 37 36

GFSFLT1_sfc_dewp_093.txt.gz
Dewpoint
52 56 57 56 57 56 57 57 57 57 59 59 60 60 60 60 61 60 60 60 59 57 57 56 54 50 48 46 46 45 43 42
52 55 56 56 56 56 56 56 57 57 57 57 57 57 58 59 59 59 59 59 58 58 56 57 55 52 50 49 47 47 44 44
52 52 55 55 55 56 56 56 56 56 56 57 57 57 57 58 59 59 59 59 58 57 56 56 55 54 52 50 48 48 47 47
51 53 54 55 54 55 55 55 56 56 56 56 56 56 56 57 57 58 58 58 57 57 57 56 57 55 54 52 50 48 47 46
50 52 53 53 55 55 54 55 55 55 54 54 55 54 54 54 56 56 57 58 59 58 57 56 56 56 55 54 53 52 50 45
50 50 52 54 55 54 54 54 54 54 54 54 53 52 54 53 55 56 56 56 57 58 59 58 58 56 57 56 54 52 53 51
50 50 52 53 54 54 54 54 54 53 53 53 54 53 53 50 52 53 55 55 57 57 57 58 58 58 57 57 57 55 54 54
50 50 50 51 52 54 53 54 53 52 52 52 52 53 53 52 51 52 53 53 54 55 57 58 57 59 58 58 57 56 55 54
49 50 50 50 51 52 53 52 52 52 52 52 52 51 50 51 52 52 53 53 53 55 56 56 57 58 58 58 57 57 56 54
49 50 51 51 52 51 52 51 52 52 53 52 52 52 51 50 52 53 53 53 53 55 56 56 57 57 57 57 58 57 57 56
48 49 51 51 52 52 52 52 51 52 53 53 52 52 52 52 53 53 53 54 55 55 56 56 56 57 57 57 57 57 56 56
47 49 50 51 52 53 53 53 53 53 53 53 53 52 52 53 53 53 53 54 54 54 55 56 56 57 57 56 56 55 52 52
47 48 49 50 51 52 52 53 53 53 53 53 53 54 53 53 54 53 54 54 56 56 55 55 56 56 56 54 53 54 52 52
47 48 48 49 50 52 52 52 52 53 53 53 53 54 53 53 53 54 54 54 54 54 55 56 56 56 55 56 55 54 52 52
44 47 48 49 50 51 52 53 53 53 52 52 52 53 53 53 54 54 55 55 54 55 56 56 57 57 56 56 54 54 53 53
41 44 47 49 50 51 52 53 53 53 52 53 53 53 54 54 55 55 55 56 57 57 58 58 57 57 56 55 54 54 53 52
32 39 45 48 50 51 52 52 53 53 52 52 52 52 52 54 55 56 56 57 57 58 57 57 56 55 48 45 48 52 51 50
34 34 40 46 48 50 51 52 54 53 52 51 51 51 51 53 54 55 55 56 57 57 56 55 54 51 44 43 41 47 45 41
34 36 44 49 50 50 51 52 53 53 53 53 53 53 53 54 54 55 53 51 50 48 46 45 42 38 38 39 38 39 37 36

GFSFLT1_sfc_dewp_096.txt.gz
Dewpoint
52 53 56 57 58 58 58 59 59 59 60 60 61 61 62 62 62 62 62 60 59 57 56 56 53 50 50 49 50 49 48 46
51 54 56 57 58 57 57 58 58 59 59 58 59 58 60 61 61 61 61 59 58 58 54 56 54 52 52 52 51 50 48 47
51 53 55 57 56 57 57 57 58 57 58 58 59 59 59 60 60 60 60 60 58 57 56 56 55 52 53 53 52 49 49 48
50 52 54 56 56 56 56 56 57 57 58 57 57 58 58 58 59 59 59 60 58 58 55 55 56 54 53 54 52 52 49 48
49 51 52 55 55 56 56 56 56 57 57 56 56 55 54 56 58 58 59 59 58 58 56 56 57 55 55 54 52 53 51 48
49 50 52 54 55 56 56 56 56 56 56 56 56 55 54 58 57 57 58 58 58 58 58 57 57 56 57 57 55 55 52 51
49 50 51 53 56 56 56 55 55 55 55 56 55 55 54 55 56 56 56 57 58 57 57 57 58 56 56 57 58 58 56 55
49 49 49 52 54 55 55 55 54 55 56 55 55 55 55 54 54 55 53 53 55 56 57 58 57 57 57 58 58 58 58 56
49 49 49 51 53 54 54 54 54 54 54 54 54 54 54 54 54 53 54 52 52 55 55 55 56 56 58 59 60 58 58 58
48 49 50 50 53 54 54 54 54 54 54 54 53 53 53 53 54 54 52 53 52 54 56 56 56 56 56 58 57 57 58 59
47 48 50 50 52 53 55 54 53 54 54 54 53 53 53 53 53 53 53 53 52 52 54 55 55 55 55 56 56 56 56 57
46 48 50 51 51 52 54 54 52 53 54 55 55 54 54 54 53 53 53 54 53 53 53 54 54 54 54 56 56 55 55 56
44 47 49 50 51 52 53 53 53 53 53 54 54 55 54 54 54 53 54 53 54 54 54 53 53 53 55 56 56 55 56 56
43 46 48 49 50 51 52 53 54 54 53 54 54 55 54 54 54 54 54 54 54 54 54 54 54 54 54 55 57 56 55 56
43 45 46 48 49 51 51 52 53 53 53 53 54 54 54 54 55 55 55 55 54 54 54 54 54 54 53 54 56 56 57 57
37 43 45 47 48 50 51 52 53 53 53 53 53 54 54 55 55 55 55 54 54 53 54 54 55 55 56 56 57 57 56 55
32 36 42 46 48 50 51 52 53 54 52 53 53 54 53 54 54 54 54 54 54 55 55 56 56 57 49 46 50 55 53 51
33 34 37 44 48 50 51 52 54 54 54 53 53 53 53 53 53 54 54 55 56 56 56 54 47 41 39 43 41 46 42 40
33 36 37 41 46 50 52 52 53 54 53 52 53 53 53 52 53 53 54 52 49 46 43 40 38 36 37 37 36 36 34 34

GFSFLT1_sfc_dewp_102.txt.gz
Dewpoint
50 52 54 57 60 59 60 60 61 61 61 61 62 63 64 64 63 62 62 62 61 59 59 60 60 60 58 57 55 54 51 50
52 53 56 57 59 58 58 59 60 60 60 60 60 60 61 63 63 61 61 61 60 58 56 57 57 57 58 57 55 53 52 53
51 53 55 57 57 57 57 59 59 59 59 59 60 60 60 61 63 61 61 60 59 56 56 56 55 56 56 55 54 53 54 54
50 52 55 57 56 56 57 57 59 59 59 59 59 60 60 60 61 61 60 59 58 57 57 57 56 55 56 55 55 54 53 52
49 52 54 56 56 56 56 57 58 59 59 58 58 58 57 59 60 60 60 59 58 58 59 58 57 56 55 56 56 55 53 50
48 50 53 55 56 56 56 57 58 57 58 58 58 57 58 59 59 58 58 58 57 57 58 57 56 56 57 56 56 55 55 52
46 50 52 53 57 56 56 56 56 58 58 58 58 57 57 57 57 57 57 57 57 57 56 58 58 58 57 57 57 55 56 55
45 48 50 52 56 56 56 55 55 57 57 58 57 57 57 57 57 57 57 56 56 56 56 58 58 57 57 58 57 57 56 56
45 48 50 52 55 55 55 55 54 56 57 57 57 56 57 57 56 57 57 56 56 56 56 57 57 56 57 57 57 58 58 58
45 48 51 52 55 55 56 55 53 55 56 56 56 56 55 56 56 56 56 57 57 57 56 56 57 57 57 57 56 57 57 56
45 47 51 52 54 55 56 55 54 54 56 56 56 56 55 54 57 56 56 56 56 57 56 55 54 54 55 56 55 55 56 56
44 46 50 51 54 55 55 55 54 55 56 56 56 55 55 54 54 56 56 56 56 56 56 56 55 54 55 55 54 54 54 54
43 46 50 50 52 54 54 55 54 55 56 55 54 55 55 54 55 53 54 56 56 55 56 55 55 54 54 54 55 54 55 55
40 45 48 49 51 52 54 54 53 54 54 56 55 55 55 55 55 56 56 56 55 54 55 54 54 54 54 55 55 55 54 54
41 43 47 49 51 52 52 54 53 53 54 54 55 55 55 55 55 55 56 56 56 55 55 55 55 54 54 54 53 54 54 55
35 42 45 48 50 52 52 54 53 53 52 54 55 56 56 56 56 56 56 56 55 55 55 55 55 55 50 49 54 54 51 45
27 37 42 46 49 51 52 53 53 53 52 53 54 56 56 56 56 56 56 56 56 56 54 49 43 41 38 41 45 42 41 39
28 34 38 45 48 50 52 53 54 53 53 53 53 54 54 55 56 56 56 53 46 42 40 39 37 36 36 37 37 36 35 34
32 38 40 41 47 49 52 52 54 54 54 53 53 54 54 54 53 45 42 40 38 36 35 35 34 34 34 34 33 32 32 32

GFSFLT1_sfc_dewp_108.txt.gz
Dewpoint
48 54 56 58 58 59 59 59 59 60 60 62 62 61 62 63 63 63 63 63 62 60 56 55 55 54 51 55 54 54 52 51
51 56 56 57 58 58 58 57 58 58 56 59 61 60 61 61 62 62 63 63 62 61 57 57 56 54 52 55 55 52 50 49
53 56 56 57 57 57 57 58 58 57 57 57 58 60 61 61 62 62 63 62 62 61 59 57 56 55 56 56 53 51 50 48
53 56 56 57 56 56 57 58 59 58 57 57 56 58 59 60 61 61 62 61 61 61 60 58 58 57 58 56 53 51 49 50
52 54 56 56 56 56 57 58 58 58 58 57 56 55 56 58 61 60 62 61 60 60 60 59 59 58 57 56 53 52 50 47
52 54 55 56 55 55 56 58 58 58 58 58 57 57 57 56 58 60 60 61 60 58 58 59 60 59 58 55 54 55 53 51
51 53 55 55 55 55 56 57 57 58 58 58 57 57 57 57 58 58 59 60 60 58 58 58 59 59 57 57 57 56 55 54
51 54 54 54 54 55 56 56 56 57 57 58 57 57 58 58 58 59 58 59 59 58 58 58 58 59 58 58 57 56 56 55
51 54 54 54 54 55 55 56 56 56 56 57 57 56 57 57 58 58 58 58 58 58 58 58 58 58 58 58 57 56 56 56
51 53 54 54 54 54 55 55 56 56 57 57 57 57 56 56 57 58 58 58 58 58 58 58 58 57 57 57 56 56 56 56
51 53 54 54 54 55 55 54 55 56 57 57 56 56 56 56 56 56 57 57 57 57 57 57 57 57 57 57 56 56 56 55
50 51 54 54 54 54 54 54 54 54 55 56 56 56 56 56 56 56 55 56 57 56 56 56 56 57 57 57 56 55 55 54
49 49 54 54 54 54 54 53 53 54 54 56 55 55 56 56 56 56 56 55 56 55 55 55 55 55 56 55 55 54 54 54
44 52 52 53 53 54 53 54 53 54 55 55 55 54 54 55 56 56 56 55 55 55 54 54 54 54 55 55 54 54 54 54
43 52 53 54 54 54 54 54 53 54 55 56 55 54 54 54 56 55 55 56 56 55 55 54 54 54 54 53 54 54 54 48
42 49 52 54 55 54 54 54 54 54 54 53 55 54 54 53 54 54 55 55 55 56 56 55 55 54 52 53 53 53 43 39
48 45 49 53 54 55 55 54 54 54 54 54 54 55 55 54 53 53 53 54 55 51 49 44 41 40 39 42 44 41 39 37
48 48 47 48 53 54 55 55 55 54 54 54 54 54 54 54 54 54 53 45 42 40 39 38 36 37 37 38 37 36 35 34
47 47 46 45 45 54 55 56 56 55 54 54 54 54 54 54 51 44 41 40 38 36 35 34 34 34 35 34 33 32 31 31

GFSFLT1_sfc_dewp_111.txt.gz
Dewpoint
32 45 55 59 60 60 59 60 59 59 61 62 61 59 61 62 62 61 61 63 61 60 57 55 53 50 49 51 52 52 51 52
34 55 56 57 58 58 58 58 58 59 59 60 59 59 61 61 62 61 61 62 61 58 56 55 53 48 49 52 52 51 51 51
50 55 56 57 58 58 58 58 58 57 58 59 60 60 61 61 62 62 62 62 61 59 55 55 52 49 50 53 52 51 51 50
48 55 56 56 57 57 57 58 58 57 56 56 58 60 60 60 61 61 62 62 62 60 56 55 52 51 49 53 53 52 50 49
48 55 55 56 56 57 57 57 57 56 56 56 57 58 58 59 60 61 62 62 62 61 58 55 53 53 50 53 54 53 51 48
49 54 55 56 56 56 57 57 57 57 57 56 55 54 56 59 60 60 61 61 61 61 60 57 56 54 56 54 55 54 51 49
44 52 55 56 55 55 56 56 57 58 58 56 55 54 55 55 58 59 60 61 61 61 61 60 59 58 57 56 55 54 53 51
38 50 55 55 55 55 56 56 56 57 57 57 56 56 57 56 56 57 58 60 60 60 60 60 60 59 58 56 56 55 54 53
46 50 54 54 55 55 56 56 56 56 57 57 57 57 57 57 57 57 58 58 60 59 59 59 60 58 57 57 56 56 56 56
44 52 54 54 54 55 55 55 56 56 56 57 57 57 57 57 58 59 59 60 59 59 58 59 59 58 58 57 57 57 57 56
42 53 54 54 54 55 55 55 55 55 56 57 56 56 56 57 57 57 58 59 58 58 58 58 58 58 58 58 57 57 56 56
44 47 54 54 55 55 55 55 55 55 56 57 56 56 56 56 56 57 57 58 58 58 57 57 57 57 57 57 57 56 55 55
43 43 54 54 55 55 54 54 55 55 56 56 56 56 56 56 55 55 57 56 57 57 57 57 57 56 56 56 55 56 55 55
42 42 54 55 55 55 54 54 54 54 55 55 56 56 56 56 56 55 55 56 56 56 56 56 56 56 56 56 56 55 55 55
47 49 54 55 55 55 54 54 53 54 54 54 55 55 56 56 56 55 55 55 55 55 55 55 56 56 56 55 55 54 52 45
48 48 53 55 55 55 55 54 53 54 54 54 53 55 55 55 55 55 55 55 55 55 54 54 54 54 53 54 53 51 42 39
47 47 47 48 51 55 55 54 54 54 54 55 53 55 53 54 54 54 55 55 55 54 51 48 46 44 40 44 46 43 39 36
46 46 45 46 46 48 55 55 55 54 53 54 55 54 53 53 53 53 53 48 45 42 41 40 38 39 39 39 38 37 35 34
45 44 44 44 44 47 52 56 55 55 54 54 54 54 53 53 51 46 42 41 39 37 36 36 35 35 36 35 34 33 32 32

GFSFLT1_sfc_dewp_117.txt.gz
Dewpoint
28 31 35 37 43 47 57 61 62 63 63 62 61 61 60 60 61 61 62 63 63 62 62 61 59 58 57 56 55 54 55 54
30 35 38 42 54 56 59 61 62 62 61 60 60 59 59 60 61 61 62 62 62 63 62 60 59 57 57 58 55 55 54 55
34 40 40 48 55 59 60 60 61 61 61 61 61 60 61 60 61 62 62 62 61 62 61 59 58 57 56 55 55 54 54 55
42 44 45 50 55 59 59 60 60 61 61 61 61 61 61 61 61 61 61 61 61 60 60 59 57 55 54 56 55 54 52 54
43 44 45 50 53 58 59 60 60 60 61 60 60 59 58 60 61 61 61 60 59 59 59 58 56 54 53 55 54 54 54 53
43 44 45 49 55 58 60 60 59 59 60 60 59 59 59 61 61 60 61 61 59 58 58 57 54 53 54 54 55 55 54 54
43 45 45 47 57 58 59 59 58 58 59 59 59 59 58 60 60 60 61 61 60 59 57 56 55 53 53 53 54 55 56 55
42 43 44 46 53 56 57 58 57 58 58 58 58 59 60 59 60 60 60 60 61 59 58 57 56 55 54 53 54 55 56 55
42 44 45 46 48 55 56 56 56 57 58 58 60 60 59 59 60 61 60 60 60 61 60 59 57 56 53 54 55 55 56 57
43 46 47 49 49 50 55 56 56 57 57 59 59 58 58 57 58 59 61 61 61 61 60 59 59 56 56 55 56 56 56 57
45 47 48 50 53 52 56 56 56 57 57 58 58 58 58 58 58 58 58 59 60 60 61 60 59 57 56 55 55 56 55 56
43 45 47 47 52 55 56 56 56 56 57 58 58 57 58 58 58 58 58 59 59 59 60 60 59 58 57 56 55 55 53 54
43 45 45 47 47 55 56 56 56 56 57 57 57 57 57 57 57 58 59 59 60 59 59 59 59 59 58 56 55 55 54 54
42 43 44 47 47 48 56 56 55 55 56 56 56 57 57 57 57 57 58 58 58 58 58 58 58 59 58 57 56 55 55 54
42 43 45 47 48 47 51 56 56 56 56 55 56 56 57 57 57 57 58 57 57 57 57 57 58 58 58 57 57 56 56 55
42 46 47 48 47 46 47 54 56 56 55 55 56 56 57 57 56 56 57 57 56 56 56 56 56 56 57 56 54 47 44 41
46 47 47 45 45 45 45 48 55 55 55 55 56 56 56 56 56 56 56 56 56 55 54 53 51 49 42 43 45 43 40 37
43 43 44 43 43 43 45 47 50 54 54 55 54 56 56 56 56 55 55 52 49 47 45 45 42 42 40 40 39 38 36 34
40 40 41 41 41 43 44 45 49 54 54 54 54 55 55 55 55 49 46 45 44 42 39 38 37 37 38 37 36 34 33 33

GFSFLT1_sfc_dewp_120.txt.gz
Dewpoint
22 27 35 39 43 43 46 46 54 61 64 66 65 63 63 64 66 64 65 66 64 64 63 62 63 61 60 59 58 57 57 56
26 38 44 48 50 49 52 53 57 61 63 64 63 61 61 61 63 63 62 64 64 63 63 62 61 60 60 59 58 58 55 57
35 41 45 48 52 54 55 56 59 60 61 62 62 62 62 61 61 62 62 62 64 63 63 62 60 60 59 58 57 56 55 57
39 43 46 48 51 55 55 56 59 60 60 61 62 62 62 61 61 61 62 62 63 63 62 61 60 60 58 58 57 56 55 56
41 42 44 47 53 57 57 57 58 60 61 61 61 60 60 61 61 63 63 63 63 62 62 61 60 59 58 58 57 56 57 55
39 40 43 44 52 58 58 58 60 60 61 62 61 60 59 60 61 62 62 62 61 61 61 59 59 59 58 57 57 59 58 56
38 40 43 45 50 55 58 58 59 60 61 62 61 61 59 60 61 61 62 60 60 60 58 58 58 58 58 57 57 58 58 57
39 41 43 46 50 51 55 57 57 59 60 60 60 60 60 60 60 60 60 60 58 58 58 57 57 57 57 57 56 58 58 57
39 42 46 48 51 54 53 55 57 58 59 60 60 60 59 60 60 59 60 60 60 59 58 57 56 55 56 56 56 57 58 59
39 40 45 47 50 53 55 53 56 57 58 59 59 60 60 59 60 61 62 61 60 61 60 58 57 55 55 55 56 56 57 59
38 39 43 43 47 49 52 57 55 57 57 59 60 60 59 60 60 61 62 61 61 61 60 59 58 57 56 55 55 55 56 57
37 40 41 41 46 48 50 54 56 56 57 58 60 59 59 60 59 59 59 60 60 60 60 60 59 58 58 56 56 56 55 56
37 39 41 42 45 47 49 50 56 57 57 58 59 59 58 58 58 58 58 57 59 59 59 60 60 57 57 57 55 56 57 55
35 38 41 44 46 47 48 48 50 57 57 58 58 59 57 57 56 58 58 58 58 59 59 59 59 59 58 57 56 55 55 54
34 40 43 44 45 47 47 47 48 56 57 57 58 57 56 56 57 58 58 58 58 58 59 59 58 58 59 58 57 56 55 54
37 42 45 46 46 46 46 46 48 52 56 57 57 56 57 57 58 57 58 58 58 57 58 58 57 57 57 57 57 56 54 49
42 44 44 44 44 44 44 45 47 48 56 56 56 56 56 57 57 57 57 57 57 57 57 54 51 46 41 43 46 44 40 38
42 42 42 43 43 43 43 44 46 47 53 56 55 55 55 57 56 56 56 55 52 48 46 45 42 41 39 39 39 38 37 35
40 40 40 41 42 43 42 43 45 47 49 56 55 55 55 55 56 55 51 49 46 42 40 40 38 37 36 36 35 34 33 33

GFSFLT1_sfc_dewp_123.txt.gz
Dewpoint
22 24 27 35 45 48 48 47 52 55 62 65 65 67 66 66 66 65 67 68 68 67 66 64 65 63 62 62 61 60 56 56
21 27 35 41 46 49 49 50 55 51 54 59 63 65 66 64 65 66 67 67 67 66 65 64 63 62 61 61 60 58 57 57
24 33 40 44 47 50 53 52 54 54 53 58 62 65 62 62 63 65 65 65 65 65 64 63 63 62 60 60 60 58 55 59
31 37 41 46 48 55 54 53 54 57 57 59 63 63 62 62 62 62 63 63 64 65 64 63 62 61 60 60 60 58 54 57
35 35 38 43 49 55 57 56 55 57 60 61 62 61 60 60 61 62 62 62 62 62 63 63 61 61 60 60 60 59 56 55
34 35 38 41 49 52 57 58 57 58 60 61 61 61 61 62 62 62 62 62 62 63 64 63 61 61 60 60 60 59 57 56
35 37 39 41 51 54 53 56 57 59 61 62 62 62 61 61 60 61 61 63 63 62 62 62 62 60 60 59 60 58 58 57
36 37 40 43 48 52 53 51 55 58 60 61 62 62 62 61 60 60 62 61 60 60 61 60 60 60 59 59 59 58 57 56
36 36 40 42 46 48 53 52 52 56 59 60 61 62 62 60 60 60 61 61 60 60 59 59 58 58 59 59 59 59 58 58
34 35 39 41 41 45 51 55 53 55 57 59 60 61 62 60 59 61 60 62 61 60 59 57 57 57 57 58 58 58 59 59
30 34 37 38 41 45 50 52 54 55 57 58 59 60 61 60 60 61 62 61 62 60 59 58 56 56 56 57 57 58 58 59
25 33 37 39 42 45 48 50 52 56 57 58 59 60 61 61 60 61 61 62 61 61 59 58 56 55 55 56 56 57 57 57
17 31 35 39 43 45 46 49 50 53 57 57 58 59 61 59 59 59 61 60 61 61 60 59 57 56 55 55 55 56 56 56
13 25 31 37 42 45 46 47 49 51 54 57 58 58 60 59 59 59 59 59 59 59 60 60 59 58 56 56 55 55 55 55
16 21 32 38 44 46 46 47 49 50 51 57 57 58 59 59 59 58 59 59 58 58 58 59 60 59 58 57 57 57 56 55
23 30 39 43 44 45 45 46 48 49 48 51 57 58 59 57 58 58 58 58 57 58 58 59 59 59 59 58 57 57 56 55
30 38 40 42 43 44 44 45 45 48 48 49 55 58 57 57 58 58 58 58 57 57 57 55 52 48 41 44 52 53 50 42
38 40 41 42 42 42 43 44 45 45 47 48 50 57 57 57 57 57 57 57 55 51 48 47 44 42 39 40 39 39 37 36
39 40 40 40 41 41 41 42 43 44 44 45 48 56 57 56 57 56 55 52 47 43 41 41 39 37 37 36 35 35 33 33

GFSFLT1_sfc_dewp_126.txt.gz
Dewpoint
28 30 35 43 49 50 51 52 54 58 65 67 68 67 66 67 67 68 68 68 68 67 66 65 65 63 62 62 61 62 61 61
22 34 37 43 49 50 52 54 56 56 59 61 63 66 66 66 65 66 68 66 67 67 66 65 64 63 62 62 61 60 60 60
21 32 44 46 49 53 53 55 57 57 53 54 60 63 67 66 65 65 66 67 67 66 65 64 64 63 62 61 60 59 59 60
27 39 44 50 51 56 55 56 57 58 57 55 62 65 64 63 63 64 65 66 66 65 65 64 63 62 61 61 60 58 56 58
34 39 42 48 53 55 57 58 59 58 60 59 63 62 61 61 62 62 63 64 64 64 64 63 62 62 61 61 60 59 57 56
36 37 41 46 53 55 57 58 59 60 61 62 63 62 62 62 61 61 62 62 62 63 63 63 62 62 61 60 60 59 58 56
37 40 44 45 55 56 58 56 56 59 60 61 63 62 61 60 61 61 61 61 62 62 62 63 62 62 61 60 60 60 59 57
39 39 41 44 49 53 53 53 53 59 60 61 62 62 62 61 62 61 61 61 62 62 62 63 62 61 61 60 60 60 59 58
39 39 41 44 46 49 52 51 53 57 59 60 61 62 62 62 62 61 60 61 61 61 61 61 61 61 60 60 60 60 59 58
37 39 41 43 44 49 52 51 51 55 57 59 59 61 62 62 62 61 61 62 60 60 59 58 58 59 59 59 59 59 59 58
33 35 39 41 44 48 52 51 51 52 55 58 59 60 61 62 62 61 61 62 61 60 59 58 58 58 58 58 58 59 58 57
24 31 37 40 45 47 49 50 50 51 53 56 59 59 60 61 61 61 61 62 61 60 58 57 57 57 57 57 57 58 58 57
22 21 34 37 42 45 47 50 49 50 51 53 57 59 60 60 61 61 61 61 61 60 59 58 56 56 56 56 56 57 57 57
20 21 19 34 40 47 46 48 48 49 49 51 55 58 59 59 60 60 61 61 61 61 60 58 57 56 55 56 56 56 57 57
18 23 24 43 46 46 46 48 48 48 48 49 51 57 58 58 60 60 60 60 59 60 60 59 58 56 55 55 55 56 56 57
16 23 41 42 43 45 45 46 47 46 46 48 49 52 58 59 60 59 59 59 58 58 58 59 59 57 56 55 55 55 55 55
21 38 40 41 42 42 43 44 44 45 46 46 48 49 55 58 59 58 58 58 57 58 57 56 53 51 41 46 53 55 54 53
38 40 40 41 41 41 41 41 42 43 43 44 45 46 51 57 58 58 57 57 55 51 49 47 44 42 40 41 40 42 40 40
39 38 38 39 39 39 39 39 40 40 41 42 41 42 45 54 58 57 55 51 48 45 43 41 39 37 37 37 36 35 34 34

GFSFLT1_sfc_dewp_129.txt.gz
Dewpoint
32 32 31 39 43 43 44 47 58 65 67 67 66 65 65 66 66 68 68 68 67 66 65 65 64 62 62 62 60 61 60 60
29 29 32 38 43 44 47 48 49 54 61 65 65 65 65 65 65 66 68 68 67 66 65 65 63 62 62 61 61 60 60 60
19 29 39 43 47 53 53 54 54 54 50 58 64 66 66 65 66 65 66 67 67 66 65 65 64 62 62 61 60 60 59 60
32 40 44 44 52 53 54 55 57 57 55 51 59 62 63 63 65 64 64 66 66 66 65 65 64 63 62 61 60 59 58 59
36 38 44 49 50 52 54 55 55 57 59 55 59 60 59 61 64 65 65 65 66 66 65 64 64 63 62 61 61 59 59 57
35 38 46 49 49 50 52 55 55 58 59 60 60 59 59 60 61 62 63 64 65 65 65 63 63 63 62 61 61 60 59 57
37 37 48 50 51 50 50 51 54 56 58 59 58 60 60 60 60 61 61 62 63 64 64 63 62 62 61 61 61 60 59 58
37 38 41 45 48 49 49 50 51 56 58 59 59 60 61 61 60 60 60 61 62 62 63 63 62 61 61 61 60 60 59 58
37 37 39 42 46 49 49 50 51 53 58 58 59 60 61 62 61 61 61 61 61 62 62 62 62 61 61 61 60 60 60 59
37 36 39 39 47 49 48 49 50 51 53 57 57 59 61 61 62 62 62 62 61 61 62 62 62 61 61 61 60 60 60 60
32 35 39 41 46 48 50 49 49 50 51 53 54 58 60 61 62 62 62 62 61 60 59 59 59 59 60 60 59 60 59 59
23 30 34 42 44 46 48 49 49 49 49 51 52 54 58 59 60 61 62 62 60 60 59 58 58 57 57 58 58 58 58 58
16 15 30 35 43 47 47 48 48 48 49 49 50 52 55 59 59 60 62 61 61 60 59 57 57 57 57 57 57 57 58 57
17 20 42 45 46 46 47 47 47 48 47 47 48 49 51 56 59 60 61 61 61 60 59 57 56 56 56 57 57 57 57 57
18 41 42 43 44 45 45 46 46 46 46 46 46 48 49 51 56 59 60 61 61 60 59 58 57 56 56 56 56 56 57 57
35 40 42 41 42 43 43 43 42 43 44 44 46 47 47 48 52 58 60 60 60 60 59 59 57 57 56 56 55 55 56 56
39 39 39 40 39 39 39 39 40 41 42 42 43 44 44 45 50 54 59 59 59 58 59 59 58 56 47 46 52 55 54 54
35 36 36 37 36 36 36 37 38 40 40 39 40 41 40 41 43 46 58 58 57 54 52 51 48 46 40 43 44 51 51 50
33 34 35 34 33 33 34 35 37 37 37 36 36 36 37 39 41 45 53 54 52 48 45 43 40 38 38 39 37 37 35 34

GFSFLT1_sfc_dewp_135.txt.gz
Dewpoint
17 18 22 26 31 38 58 65 67 67 67 67 66 66 66 67 67 67 67 67 66 66 65 64 63 64 63 63 61 60 60 60
16 18 30 33 38 42 61 65 66 67 67 66 65 65 65 65 67 67 67 67 67 66 66 64 64 63 63 63 61 60 58 60
17 31 40 46 45 49 61 65 66 67 67 65 63 64 64 65 65 65 66 67 67 66 66 65 64 63 63 62 61 59 58 59
18 38 49 52 53 54 55 57 61 61 61 62 62 63 63 63 63 63 64 66 66 67 66 65 64 63 62 62 61 60 58 59
20 44 50 52 53 53 54 57 59 58 56 54 59 61 61 63 64 64 64 63 65 66 65 64 64 63 62 62 62 60 59 58
23 43 50 51 52 53 53 54 57 59 59 57 57 57 59 59 62 63 64 63 64 65 64 64 63 63 63 62 61 61 60 59
32 46 49 50 50 50 54 56 56 57 57 58 58 58 59 59 60 63 63 63 62 64 64 64 63 63 63 62 62 61 60 60
31 47 50 48 48 51 52 53 53 55 57 57 56 57 57 58 59 61 61 60 61 62 63 63 63 63 63 62 62 61 61 60
34 47 49 47 49 50 49 50 51 52 52 52 53 54 56 58 59 60 60 60 60 61 62 63 64 63 63 62 62 61 61 60
43 48 48 49 50 50 49 48 49 50 50 50 50 52 52 54 56 58 60 61 61 61 63 63 63 63 62 62 62 61 61 60
45 48 49 50 50 49 48 48 48 47 47 48 49 50 51 52 55 57 58 60 60 60 61 62 62 62 62 61 61 61 60 60
47 49 49 48 47 46 46 45 45 45 45 47 48 49 50 50 51 51 54 58 59 60 61 61 61 61 61 61 61 60 60 59
46 48 47 46 43 42 42 41 41 42 44 46 47 48 47 47 47 47 49 52 57 59 61 61 61 61 61 60 60 60 59 59
43 43 42 40 39 38 38 38 39 41 43 43 43 44 44 45 44 45 46 48 51 57 60 59 59 60 60 60 60 59 59 59
39 39 39 38 36 35 35 36 38 40 41 41 40 40 40 40 41 42 43 44 47 50 57 60 59 59 59 58 59 58 58 58
37 37 35 33 32 32 32 34 36 37 38 39 37 37 37 38 39 40 41 42 44 48 51 59 59 58 57 57 57 56 56 56
31 33 31 30 29 29 30 31 31 34 35 34 34 34 35 36 37 37 39 41 42 43 47 51 58 57 49 47 53 55 55 55
27 28 29 29 28 28 28 29 29 30 30 30 31 31 32 34 35 36 38 39 40 41 43 47 56 57 46 46 46 54 54 54
25 26 26 26 25 26 28 28 27 27 27 27 28 29 31 33 34 35 37 37 39 40 41 46 52 53 43 44 44 51 49 45